GEFSCGP_500_meanwind_126.txt.gz
Wind_Speed
47 48 47 44 43 41 41 41 41 40 41 42 40 38 37 38 39 37 37 37 37 37 37 36 36 36 36 36 36 36 36 36 36 35 36 36 36 35 35 34 34 33 33 34
50 48 44 43 44 43 43 42 41 41 42 43 42 40 38 38 39 38 37 37 38 38 37 37 36 36 36 36 36 36 36 36 36 36 36 36 36 35 34 34 33 34 34 34
50 45 43 44 44 43 43 42 41 41 42 43 43 41 38 38 38 38 38 39 39 38 38 38 37 37 37 36 37 36 36 36 37 36 36 36 35 35 34 34 34 34 34 33
50 47 46 45 44 43 42 40 40 41 42 42 43 43 37 37 37 38 39 39 38 38 38 38 37 37 37 37 37 37 36 36 36 36 36 35 35 35 35 35 34 34 33 34
51 48 48 46 43 43 42 41 42 42 43 43 42 44 38 35 36 37 37 38 37 37 37 37 37 36 37 36 36 36 36 36 36 36 35 35 34 34 34 34 33 34 34 34
50 49 48 46 44 43 42 42 43 43 44 45 40 42 41 35 35 35 36 36 36 36 36 36 36 35 35 35 35 35 35 35 35 35 35 34 34 34 33 33 33 34 34 34
51 51 50 48 47 45 44 43 43 43 44 44 40 42 41 36 34 34 35 34 34 34 34 34 34 34 33 33 34 34 34 34 34 34 34 34 34 34 33 33 33 33 34 34
51 51 50 48 47 45 44 44 43 42 42 41 41 41 39 35 33 33 33 33 33 33 33 33 33 33 33 33 33 33 33 33 33 33 34 34 34 34 33 33 34 34 34 34
51 50 48 47 45 45 45 44 41 42 42 42 42 41 38 34 33 32 32 32 33 33 33 33 33 33 33 32 32 32 33 33 33 33 34 34 34 34 34 34 34 34 34 34
49 49 49 47 47 47 46 43 42 43 43 43 42 40 39 36 33 32 32 32 32 32 32 32 32 32 32 32 32 32 32 33 33 33 33 33 34 34 34 34 34 35 35 35
50 50 51 50 49 47 45 45 44 44 44 43 42 40 37 36 34 32 31 31 31 31 31 31 31 31 31 31 31 32 32 32 32 32 33 34 34 34 34 34 35 35 36 36
49 51 52 50 47 45 45 44 44 44 44 42 42 40 37 36 35 32 32 31 31 30 30 30 30 31 31 31 31 31 32 32 32 33 33 34 34 34 34 35 35 36 36 37
50 52 52 50 49 47 46 45 44 44 44 43 41 39 36 36 35 33 32 32 31 30 30 30 31 31 31 31 31 31 32 32 32 33 33 33 34 34 35 36 36 37 37 38
50 52 52 50 47 44 44 44 43 44 45 42 39 37 37 36 35 33 33 33 32 31 31 31 31 31 31 31 31 32 32 33 33 33 33 33 34 35 36 36 37 38 38 39
50 51 50 48 47 45 43 42 43 44 42 41 37 37 36 36 36 34 33 33 32 31 31 31 31 31 31 31 31 32 32 33 33 33 34 34 35 35 36 36 37 38 39 40
49 49 48 48 47 46 45 45 44 43 41 39 38 37 35 36 36 35 34 33 32 31 31 31 31 31 31 31 31 32 32 33 33 34 34 34 35 36 36 37 38 39 40 41
48 46 48 49 47 47 49 45 42 41 39 39 38 34 34 35 35 35 35 34 32 31 31 31 30 31 31 31 31 31 32 33 33 33 34 35 35 36 37 38 39 40 41 42
48 47 47 47 48 51 47 43 41 40 38 38 37 35 35 35 35 35 34 33 32 31 31 30 30 30 30 30 31 31 32 33 33 34 34 35 36 37 38 39 40 41 42 43
49 47 48 49 49 49 45 41 39 39 38 36 36 35 35 35 35 34 32 32 31 31 30 30 29 29 30 30 31 32 32 33 33 34 35 36 37 38 38 39 40 41 43 45
51 49 48 50 49 48 42 39 38 39 38 34 34 34 33 34 34 31 31 32 31 31 30 30 30 30 30 30 31 32 32 33 33 34 35 36 37 38 39 40 41 43 44 45
52 52 50 49 49 45 41 39 39 39 33 31 32 32 33 33 32 31 31 31 31 30 30 30 30 30 30 31 31 32 32 32 33 34 35 36 37 38 39 41 42 44 45 47
51 51 49 48 48 44 39 38 38 36 34 33 32 32 32 32 32 32 31 30 30 30 30 30 31 31 31 31 32 32 32 33 34 35 36 37 38 39 41 42 44 45 47 48
49 48 45 44 42 39 37 36 36 35 34 33 32 32 32 32 32 31 31 30 30 30 30 31 31 31 31 32 32 33 33 34 35 36 37 38 39 41 42 43 45 47 48 50
45 46 44 42 41 39 37 37 36 34 33 33 32 32 31 31 31 31 31 31 31 31 31 31 31 32 32 33 33 34 35 36 37 37 38 39 41 42 43 45 47 48 50 52
42 43 43 42 40 40 39 36 36 35 34 33 32 32 31 31 30 30 31 31 31 31 31 32 32 32 33 34 34 35 36 37 38 38 40 41 42 44 45 47 48 50 52 53
41 42 41 40 38 38 37 36 36 35 34 33 32 31 31 31 31 31 31 31 31 32 32 32 33 33 34 35 36 37 38 38 39 40 41 43 44 45 47 48 49 51 53 55

GEFSCGP_500_meanwind_132.txt.gz
Wind_Speed
55 56 53 49 47 46 47 47 46 45 46 46 45 42 40 41 40 37 36 36 35 34 33 33 32 32 32 32 32 32 32 32 32 32 32 32 33 33 32 32 33 34 34 34
55 55 50 48 48 48 48 48 46 46 46 47 46 44 42 42 41 39 38 37 36 35 34 34 34 33 33 32 32 33 33 33 33 33 33 33 33 33 33 33 34 34 35 35
55 50 48 49 49 49 48 47 45 45 46 47 47 46 43 42 42 40 39 38 37 36 35 35 35 35 34 34 34 34 34 34 33 33 33 33 33 33 33 34 34 35 35 35
55 52 51 51 50 49 47 44 44 45 46 47 48 48 43 41 41 40 39 39 38 37 37 36 36 36 35 35 34 34 34 33 33 33 33 34 34 33 34 35 35 35 34 34
56 54 53 51 48 47 45 43 44 45 47 48 47 49 43 41 40 39 39 39 38 37 37 36 35 35 35 35 34 34 34 33 33 33 33 34 34 34 34 34 34 34 34 34
54 53 53 50 47 46 45 46 46 47 48 50 46 47 45 39 37 37 38 38 37 36 36 35 34 34 34 34 33 33 33 33 33 33 33 33 33 33 34 34 34 34 34 34
55 54 53 52 52 50 49 48 48 49 50 50 45 47 46 37 36 36 36 35 35 35 34 33 33 33 33 32 32 33 33 32 32 32 32 33 33 33 33 33 33 34 34 34
55 56 54 53 54 52 50 49 50 50 49 47 45 46 43 38 36 35 34 34 34 34 33 33 33 32 32 31 31 32 32 31 31 31 32 32 33 32 32 32 33 33 33 34
55 54 52 51 51 51 50 50 47 47 48 47 47 44 41 38 35 33 33 32 32 32 32 32 32 31 31 31 31 31 31 31 31 31 31 31 31 31 31 32 32 33 34 34
54 54 54 52 51 51 50 48 49 49 48 48 47 44 39 35 33 32 31 31 31 31 32 32 31 31 30 30 30 30 30 30 30 31 31 31 31 31 31 31 32 33 34 34
54 54 54 54 54 52 51 51 50 49 49 48 47 43 37 34 33 32 30 30 30 30 30 30 30 30 30 30 30 30 30 29 29 29 30 30 30 30 30 31 32 33 34 35
53 54 54 54 52 50 50 49 49 49 48 46 45 42 36 34 33 32 31 30 29 29 29 29 29 29 29 29 30 29 29 29 29 29 29 29 30 30 30 31 32 34 34 35
53 54 54 54 54 53 53 50 48 47 47 47 46 41 36 35 33 32 31 30 29 29 29 29 29 28 29 29 29 29 29 29 29 29 30 30 30 31 31 32 33 34 35 35
55 55 56 56 52 50 50 49 49 49 49 47 43 38 35 34 33 32 31 30 30 30 29 29 28 28 29 29 29 29 29 29 29 30 30 30 31 31 32 33 33 34 34 35
55 55 53 52 52 50 49 47 47 47 45 44 40 39 35 34 33 32 32 32 31 30 29 28 28 28 28 28 28 29 29 29 30 30 30 31 31 32 33 33 34 34 35 36
53 53 52 52 51 52 52 50 48 47 44 42 41 39 35 35 35 34 33 32 31 30 29 29 29 28 28 28 28 29 29 30 30 30 30 31 32 33 33 34 34 35 36 36
51 51 51 50 50 52 54 51 49 47 43 41 41 36 35 36 36 34 33 32 32 31 30 29 29 29 29 28 28 29 30 30 30 31 31 32 32 33 34 34 35 35 37 38
51 51 50 49 50 52 50 46 46 45 42 41 39 35 36 35 35 34 34 33 33 32 31 30 29 29 29 29 29 29 30 30 30 31 31 32 32 33 34 34 35 36 37 38
48 49 50 50 52 51 48 45 44 44 43 40 38 36 36 35 36 36 34 34 33 32 31 30 30 30 29 30 30 30 30 30 30 31 31 32 33 33 34 34 35 36 37 38
49 49 50 50 51 50 44 41 40 43 43 38 38 36 36 36 38 34 32 33 33 33 32 31 30 30 30 30 30 30 30 30 31 31 31 32 33 33 34 35 36 37 38 39
51 50 50 49 47 46 42 41 42 43 37 35 36 35 35 36 34 31 33 33 33 33 31 30 30 30 30 30 30 30 30 31 31 32 32 33 33 34 35 36 37 38 39 41
51 50 48 47 47 46 41 40 40 35 33 35 35 35 35 34 33 33 33 33 33 32 30 30 30 30 30 30 30 30 31 31 32 32 32 33 34 35 36 37 38 39 40 41
50 49 44 43 42 40 38 37 36 35 34 34 35 35 34 34 33 32 32 32 32 31 31 30 30 30 30 30 30 31 31 32 32 32 33 34 35 36 37 38 39 40 41 42
49 48 45 42 41 39 36 35 34 34 33 34 34 35 35 33 32 32 32 31 31 31 31 31 31 31 31 31 32 31 31 32 32 33 34 35 36 37 38 39 40 41 42 43
45 46 45 42 39 38 37 35 33 33 33 33 33 33 33 33 32 32 31 31 31 31 31 31 31 31 32 32 32 32 32 33 34 35 35 36 37 38 38 40 41 42 43 44
44 45 45 41 37 36 35 35 35 35 33 32 32 32 31 31 31 31 31 31 31 31 31 30 31 32 32 32 32 33 33 34 35 36 36 37 38 39 40 41 42 43 44 45

GEFSCGP_500_meanwind_138.txt.gz
Wind_Speed
63 64 64 60 57 55 54 54 52 50 50 51 50 48 44 44 44 41 38 37 35 33 32 32 31 30 29 29 29 29 29 29 29 29 29 29 30 31 31 32 32 32 32 33
64 65 61 59 58 57 55 55 54 52 52 53 53 51 48 47 46 43 41 39 37 36 35 34 33 32 31 31 30 30 30 30 30 30 31 31 31 31 31 32 32 33 33 33
63 62 60 60 59 58 57 55 53 53 52 53 55 55 51 48 47 45 43 41 39 38 37 36 35 34 33 32 32 31 31 32 32 32 33 32 32 32 32 32 33 34 34 34
61 60 61 61 60 58 57 53 52 53 54 55 56 57 53 50 48 46 44 42 41 40 39 38 37 36 35 34 34 33 33 33 33 33 33 33 33 32 33 34 34 35 35 35
61 60 61 61 58 57 55 52 52 53 55 56 57 59 56 51 49 47 44 43 42 41 41 40 38 37 36 36 35 34 34 34 34 34 34 34 33 34 35 35 35 35 35 35
58 59 60 58 56 56 55 54 54 54 55 59 56 58 58 52 49 47 45 44 44 43 42 41 39 38 37 36 36 35 35 34 34 34 34 34 34 34 35 35 35 35 35 36
59 60 60 59 59 58 57 56 55 56 58 60 56 58 58 50 47 45 45 45 45 44 43 41 40 39 38 37 36 36 35 35 35 34 34 34 34 35 35 35 35 35 35 35
58 60 60 60 61 59 59 57 57 57 57 58 57 57 55 49 44 43 44 44 45 44 43 41 40 39 38 37 37 36 36 35 35 34 34 34 35 35 35 35 35 35 35 35
56 59 58 59 59 59 59 59 56 55 56 57 58 55 51 48 43 42 42 43 43 43 42 40 39 38 38 37 37 36 36 35 35 35 35 35 35 35 35 35 35 35 35 35
53 55 58 57 59 60 58 57 58 58 57 57 57 54 49 44 41 40 40 40 40 40 40 39 38 37 37 37 36 36 36 35 35 35 35 35 35 35 35 35 34 34 34 35
55 55 56 58 60 60 59 58 58 57 57 57 56 53 46 42 39 37 37 38 38 38 38 38 38 37 37 36 36 36 36 36 36 35 35 35 35 34 34 34 34 34 35 35
54 56 57 56 56 55 57 57 57 56 55 55 54 51 46 42 38 36 36 37 37 37 37 37 37 37 37 37 37 37 36 36 35 35 35 34 34 34 34 34 34 35 35 35
54 55 56 57 57 57 57 58 56 54 53 53 53 48 44 41 38 37 36 36 37 37 36 36 36 37 37 37 37 37 36 36 35 34 34 34 33 34 34 34 34 35 35 35
55 55 55 56 55 56 57 57 57 56 55 53 50 46 44 41 39 38 36 36 36 36 36 36 36 36 36 36 36 36 35 35 34 34 34 33 33 33 34 34 34 35 35 35
53 54 54 55 55 55 55 56 56 56 54 52 46 45 42 41 39 38 38 37 37 36 36 37 36 36 36 35 35 35 35 34 34 34 33 33 33 33 33 33 34 34 35 36
50 53 54 54 54 55 55 55 55 55 53 52 49 46 41 41 41 40 39 38 37 37 37 37 37 36 35 35 35 35 35 34 34 33 33 33 33 33 33 34 34 34 35 36
47 50 54 56 55 54 55 53 54 55 54 53 52 45 43 43 42 41 40 40 39 38 38 37 36 36 36 35 35 35 35 34 34 33 33 33 33 33 33 34 34 35 36 36
47 47 49 52 54 56 52 50 52 53 53 51 50 46 44 43 43 43 42 41 41 40 39 38 37 37 36 36 36 35 35 34 34 34 33 33 33 33 34 34 35 35 36 37
48 47 49 50 53 53 51 49 49 51 51 49 48 46 45 45 46 45 43 42 42 42 41 39 38 38 37 36 36 36 35 35 34 34 34 33 34 34 34 35 35 36 37 38
47 48 48 50 52 51 47 46 46 47 49 46 46 45 45 46 48 43 41 43 43 42 40 39 38 38 37 36 36 35 35 35 34 34 34 34 35 35 35 35 36 37 37 38
44 45 46 48 51 48 44 44 46 46 44 44 45 45 45 46 44 39 41 42 42 41 40 39 39 38 37 37 36 35 35 35 35 35 35 35 35 35 36 36 37 37 38 38
42 43 45 47 49 47 43 42 42 41 42 42 43 44 44 43 42 41 41 41 42 41 40 40 39 39 38 37 36 35 35 35 35 35 35 35 35 36 36 37 37 37 38 38
39 40 41 46 46 44 43 42 40 39 41 41 42 42 43 42 42 41 41 40 40 40 39 39 39 38 38 37 36 36 35 35 35 35 35 35 35 36 36 37 37 37 38 38
38 39 40 43 44 43 40 39 41 41 40 40 41 41 41 40 39 39 39 39 38 38 38 38 38 37 37 37 37 36 36 36 36 35 35 35 36 36 36 37 37 37 38 39
37 38 41 44 44 43 41 39 38 38 39 41 41 42 41 40 38 38 38 37 37 36 37 37 37 36 36 36 36 35 35 35 35 35 35 36 35 36 36 36 37 38 39 40
35 37 41 44 44 44 42 41 41 39 37 38 39 39 40 40 38 37 36 37 36 35 35 35 35 35 35 35 35 34 34 35 35 35 35 35 35 36 36 37 38 39 40 40

GEFSCGP_500_meanwind_144.txt.gz
Wind_Speed
63 65 66 64 63 62 60 60 59 58 56 56 55 53 51 49 48 46 45 44 42 39 38 37 35 34 32 30 29 29 28 27 26 25 25 25 26 26 26 26 26 27 27 28
61 66 64 63 62 61 61 61 60 59 58 58 57 56 54 52 51 49 47 45 43 41 40 38 37 35 34 32 31 30 29 28 27 27 27 27 27 27 27 27 28 28 28 29
60 60 62 63 64 62 61 61 59 58 57 58 59 60 57 55 53 52 49 47 45 43 41 40 38 37 35 34 33 32 31 30 29 29 29 29 28 28 28 29 29 29 29 29
59 56 60 62 64 63 62 60 58 57 57 58 60 62 60 58 56 54 51 48 46 44 42 41 40 38 37 35 34 33 32 32 31 31 30 30 29 29 30 30 30 30 30 31
59 58 58 60 61 62 60 58 58 57 57 59 60 62 62 60 58 55 52 49 47 44 43 42 41 40 38 37 36 35 34 34 33 32 32 31 31 31 31 31 31 31 31 31
55 57 58 56 56 58 59 58 56 56 58 61 60 61 63 61 57 54 52 50 47 46 45 44 43 42 40 39 38 37 36 35 35 34 33 32 32 32 32 32 32 32 32 32
53 57 58 56 55 57 59 59 57 57 59 63 60 62 64 60 56 53 51 50 48 47 46 45 44 43 41 40 39 38 37 36 36 35 34 33 33 33 33 33 33 33 33 33
50 55 59 58 56 56 58 60 60 58 60 61 61 63 62 59 55 52 51 50 49 48 48 46 45 44 43 41 40 39 38 37 36 35 35 34 34 34 34 34 34 34 33 33
47 51 56 57 55 56 58 60 58 57 58 58 59 59 60 58 53 51 51 50 49 48 48 47 46 45 44 42 41 40 39 38 37 36 36 35 35 35 34 34 34 34 34 34
46 47 52 55 55 56 57 58 59 58 57 57 58 58 58 55 51 49 49 49 48 48 48 48 46 45 44 43 42 41 40 39 38 37 37 36 36 35 35 35 35 34 35 35
46 46 49 51 55 56 57 58 59 59 58 57 57 56 54 50 47 46 45 45 46 47 47 47 46 46 45 44 43 42 41 40 39 38 37 37 36 36 36 35 35 35 36 36
46 45 46 48 49 53 56 57 58 58 59 57 56 55 51 48 45 43 43 43 43 44 45 45 45 45 44 43 42 41 41 40 39 38 38 37 37 36 36 36 35 36 36 36
44 44 43 44 49 51 54 55 56 55 55 55 55 54 50 46 44 43 42 42 41 42 43 43 43 43 43 42 41 40 40 39 39 38 37 37 36 36 36 36 36 36 36 36
43 45 45 43 45 49 51 54 56 56 57 55 55 52 48 45 43 41 41 41 41 41 42 42 42 42 42 41 41 40 40 39 38 38 37 37 36 36 36 36 36 36 36 36
44 45 45 43 43 45 48 51 54 56 55 54 53 51 46 43 42 41 40 39 40 40 41 42 42 41 41 40 40 40 40 39 38 38 37 37 36 36 36 36 36 36 36 36
42 43 44 42 43 44 45 48 51 54 53 51 51 51 46 45 43 41 41 40 40 40 41 41 41 41 40 40 39 39 38 38 38 37 37 36 36 36 36 35 35 36 36 36
40 41 44 42 41 44 46 45 46 50 52 52 51 48 48 47 45 42 41 41 40 41 41 41 41 41 40 40 39 38 37 37 37 37 36 36 36 36 36 36 35 36 36 36
39 40 43 44 44 43 43 42 42 44 47 51 51 50 49 49 47 45 44 42 42 42 42 42 42 42 41 40 39 38 37 37 37 36 36 36 36 36 36 36 36 36 36 36
36 37 40 42 44 43 42 41 41 42 44 47 50 51 50 50 50 48 46 46 44 43 43 43 42 42 41 40 39 38 38 37 37 37 36 36 36 36 36 36 36 36 36 36
35 36 38 40 42 43 41 41 42 42 43 45 48 50 50 50 51 47 46 46 46 45 44 44 43 43 41 40 40 39 38 37 37 36 36 36 36 36 36 36 36 35 35 35
34 35 36 37 39 42 40 40 42 44 42 44 46 47 48 48 48 46 46 46 45 45 45 45 44 43 41 41 40 39 38 37 37 37 36 36 36 36 36 35 35 35 35 36
33 34 34 35 38 37 36 37 40 42 42 43 46 47 47 46 46 47 47 46 45 44 44 44 43 42 42 41 40 39 39 38 38 37 37 36 36 35 35 35 35 35 35 36
32 33 34 35 36 35 35 36 37 40 42 43 45 46 47 47 46 45 46 46 45 44 43 43 43 42 42 41 40 39 39 38 38 38 37 36 36 35 35 35 35 35 36 36
31 33 35 37 37 36 36 36 38 40 42 43 44 45 46 46 46 46 45 45 45 44 43 43 43 42 41 41 40 39 39 38 38 38 37 36 36 35 35 35 35 35 36 36
30 31 34 36 37 38 38 38 38 39 41 42 43 44 45 45 45 44 44 44 44 43 42 42 41 41 41 40 39 38 38 38 38 37 37 36 36 35 35 35 35 36 36 36
27 30 33 35 36 38 39 39 39 39 40 41 41 43 44 44 43 42 42 42 42 41 41 41 40 40 40 39 39 38 38 38 37 37 36 35 35 35 35 35 35 36 36 36

GEFSCGP_500_meanwind_150.txt.gz
Wind_Speed
51 55 58 58 58 57 57 58 59 58 57 59 61 60 58 56 55 53 51 49 48 46 45 44 42 40 39 37 35 33 32 31 30 28 27 26 26 25 24 23 22 23 23 23
49 52 52 55 57 58 59 58 59 58 58 59 62 62 60 59 58 55 53 51 50 48 47 46 44 43 40 38 37 35 34 32 31 30 29 28 27 26 25 24 24 24 24 25
49 48 50 54 57 59 60 60 58 57 58 59 61 64 63 61 60 58 55 53 52 50 49 47 46 44 42 40 38 36 35 34 33 32 31 30 29 27 27 26 26 26 26 26
46 46 49 53 56 57 58 58 57 57 58 60 61 64 64 62 62 60 57 55 54 52 51 49 48 46 44 41 39 38 37 36 35 34 33 31 30 29 29 28 28 28 27 27
43 46 49 52 53 54 54 54 55 56 57 60 62 65 65 63 63 62 58 56 55 53 52 50 49 47 45 43 41 40 39 38 36 35 34 33 31 31 31 30 29 29 29 29
39 44 48 50 51 51 50 51 53 55 57 61 61 63 67 64 62 61 59 57 55 54 53 51 50 48 46 45 43 42 40 39 37 36 35 34 33 33 32 31 31 30 30 30
37 42 45 48 50 50 50 50 50 53 58 61 59 62 67 63 61 60 59 58 56 54 53 52 51 50 48 46 44 43 41 40 39 38 36 35 34 34 34 33 32 32 31 31
35 39 43 46 49 50 50 51 52 51 55 58 59 62 65 60 59 59 59 58 56 54 54 53 52 51 49 47 45 44 43 41 40 39 38 37 36 35 35 34 34 33 33 33
34 34 39 45 47 50 51 52 51 50 50 52 58 60 61 58 57 57 58 58 57 54 54 54 53 52 50 48 46 45 44 43 41 40 39 38 37 36 36 35 35 34 34 34
36 34 34 40 45 49 49 49 50 52 52 52 53 56 58 57 56 55 55 57 57 55 54 54 53 53 51 49 47 46 45 44 42 41 40 39 38 38 37 36 36 36 35 35
33 35 33 38 42 46 50 50 51 52 52 50 50 52 53 53 54 54 53 53 54 55 54 54 53 52 52 51 49 48 46 45 44 43 41 40 39 39 38 37 37 37 36 36
31 33 34 35 37 43 47 50 50 50 51 51 49 48 45 46 48 50 51 51 52 53 53 54 53 52 52 51 50 48 47 45 44 44 43 42 41 40 38 38 37 37 37 36
31 32 32 33 36 40 44 47 50 50 49 50 50 48 42 41 43 46 48 48 49 50 52 53 53 52 52 51 50 49 48 47 45 44 43 42 41 40 39 38 38 37 37 37
31 34 33 33 35 38 42 46 47 49 53 51 47 46 44 42 41 42 44 46 47 48 49 50 51 52 51 51 51 50 49 48 46 45 43 43 42 40 40 39 39 38 38 37
31 34 35 36 38 38 40 46 48 48 51 52 46 43 43 43 42 41 41 43 44 46 47 48 50 50 50 50 50 50 49 48 47 45 44 43 42 41 40 40 39 38 37 37
31 33 34 34 38 41 41 43 47 48 50 50 48 45 44 44 44 43 41 41 41 42 44 46 47 48 48 48 49 49 48 47 46 45 44 43 42 42 41 40 39 38 37 36
30 32 34 34 36 40 41 41 43 46 48 50 50 46 46 45 46 45 42 41 42 43 43 45 45 45 46 47 47 47 47 46 46 45 44 43 42 41 40 40 39 38 38 37
30 32 34 35 36 38 37 38 39 41 45 47 50 49 47 47 46 46 45 44 44 44 44 44 44 44 44 45 45 46 46 46 45 43 42 42 42 41 40 39 39 39 38 37
29 30 33 35 36 36 36 36 36 39 41 45 48 51 50 49 48 47 47 47 46 47 46 45 44 44 43 43 44 44 44 44 44 43 42 42 41 40 40 39 39 38 38 37
28 29 31 33 34 35 35 34 35 37 38 42 47 49 51 50 51 48 46 47 47 47 47 46 45 44 43 43 43 43 43 43 42 42 42 42 41 40 40 39 39 38 37 37
26 28 29 30 34 36 34 33 34 35 35 38 43 48 50 51 51 50 48 46 47 47 47 46 45 45 44 44 44 43 42 42 42 42 42 42 41 40 39 39 39 38 37 37
26 27 28 29 31 33 33 33 34 35 36 36 39 44 48 50 50 49 48 46 47 47 47 46 46 46 45 45 44 44 43 42 42 42 41 41 41 40 40 39 39 38 37 37
27 28 29 31 30 30 32 34 35 35 36 37 38 40 44 47 48 48 48 47 47 48 47 46 46 46 45 45 44 44 43 43 42 41 41 40 40 40 39 39 38 37 37 37
26 29 31 32 31 32 32 34 35 35 36 38 40 40 42 43 45 46 46 45 45 46 46 46 46 45 45 44 43 43 43 43 42 41 40 40 39 39 38 38 37 37 37 36
25 29 31 32 32 34 34 35 35 36 37 38 40 41 41 42 43 44 45 45 44 44 45 45 44 44 44 44 44 43 43 42 42 42 41 40 39 38 37 36 36 36 35 35
24 28 31 31 31 34 35 35 35 36 37 38 39 40 40 41 42 43 44 44 44 44 44 44 45 45 45 44 43 43 42 42 42 42 41 40 39 37 36 35 35 34 35 35

GEFSCGP_500_meanwind_156.txt.gz
Wind_Speed
36 40 43 44 46 48 48 50 53 53 53 55 59 60 59 59 58 57 56 54 52 49 47 45 44 43 42 40 39 38 36 35 34 32 31 30 29 29 28 27 26 25 24 23
34 37 40 42 45 46 48 50 52 53 53 55 58 61 61 61 60 58 57 56 54 51 49 47 45 44 43 42 40 39 38 36 35 33 32 32 31 30 29 28 27 27 26 25
32 34 38 42 44 46 48 49 49 52 52 53 56 61 62 62 61 60 59 58 56 53 51 49 47 45 44 43 42 40 39 37 36 35 34 33 33 31 30 29 28 28 27 26
29 31 36 41 42 44 47 47 48 50 53 54 56 59 62 62 62 61 60 59 57 55 53 51 49 47 45 43 42 42 41 39 38 37 35 34 33 32 31 31 30 29 28 27
29 31 34 37 40 43 44 46 47 48 50 54 55 59 60 62 64 61 59 58 58 56 54 52 50 48 46 44 44 43 42 41 39 38 37 35 34 33 33 32 31 30 29 28
28 30 33 34 38 41 41 43 46 47 49 54 54 57 61 59 61 60 58 58 58 56 55 53 51 50 48 46 45 44 43 42 40 39 38 37 35 35 34 33 32 32 31 30
26 29 30 32 35 38 40 41 43 46 50 53 52 56 61 56 56 58 58 58 57 57 56 55 53 52 50 48 47 46 44 43 41 39 38 37 36 36 35 34 34 33 32 31
23 28 31 31 33 35 38 40 41 44 48 51 52 56 57 53 54 57 58 58 57 57 56 56 54 53 51 49 47 47 46 44 42 41 39 38 37 37 36 35 35 34 33 33
23 25 29 30 31 34 37 39 39 41 45 49 52 53 54 52 52 54 56 57 57 57 56 56 55 54 53 50 49 48 47 45 44 42 40 39 38 38 37 36 36 35 35 34
22 24 26 29 29 32 35 36 38 40 41 44 49 51 53 50 49 51 54 54 55 55 56 55 55 55 54 52 50 49 48 47 45 44 42 41 40 38 38 38 37 36 36 35
21 23 25 28 30 32 34 37 40 41 43 43 44 46 47 47 48 49 50 51 52 54 55 54 54 55 54 53 52 50 49 48 47 45 43 42 41 40 39 38 37 37 36 36
21 22 24 27 29 31 34 37 40 42 44 45 45 43 43 44 47 48 48 49 50 51 52 53 53 54 54 53 52 51 49 48 47 45 44 43 41 41 40 39 38 37 36 36
22 23 24 26 28 31 34 36 38 41 43 45 46 44 42 42 44 47 48 48 49 50 51 52 52 53 53 53 53 51 50 48 47 46 45 44 43 42 41 40 39 38 38 37
25 26 26 26 28 31 34 35 38 41 44 44 45 44 42 41 42 44 47 48 48 50 50 51 51 52 52 52 53 52 51 49 48 47 46 45 44 42 42 41 40 39 39 39
27 28 27 27 28 31 33 34 37 39 40 41 42 44 43 41 41 42 45 47 48 48 48 49 50 51 51 51 51 52 51 50 49 48 47 45 44 44 43 42 41 41 40 39
27 28 28 28 29 32 32 33 35 37 39 40 42 44 42 43 42 41 43 46 48 47 47 48 50 51 51 51 51 51 51 50 49 48 48 47 46 45 44 43 42 42 41 41
27 29 29 28 28 33 33 32 34 35 37 39 42 43 41 42 44 43 42 44 46 46 46 47 49 51 50 51 51 52 52 51 49 48 48 47 46 45 44 44 43 42 41 41
26 28 29 28 29 32 30 31 33 35 37 38 40 41 43 44 44 45 44 43 45 44 45 47 48 48 51 51 50 51 52 51 50 49 48 47 46 46 45 45 43 43 42 41
24 27 28 29 30 30 29 30 32 34 36 38 37 39 42 44 45 45 46 46 45 44 45 46 47 47 48 49 49 50 50 51 51 49 48 48 47 47 46 45 44 44 43 43
25 26 28 29 29 29 29 29 30 33 34 36 37 38 40 42 45 46 46 48 47 45 44 45 47 48 48 48 48 48 49 50 50 49 48 48 48 47 46 45 45 45 44 43
24 27 28 29 29 28 27 28 31 34 34 35 36 38 40 41 42 45 46 48 48 47 45 44 45 46 47 47 47 47 47 47 48 48 48 48 48 47 46 45 45 45 44 43
24 26 28 29 31 28 27 29 31 32 34 36 37 38 40 42 41 43 46 48 48 47 46 45 45 46 47 47 47 46 46 46 46 46 47 47 47 47 46 46 45 44 43 42
23 25 27 28 28 29 29 30 31 31 33 35 37 38 39 41 42 44 46 48 48 47 46 46 46 46 48 48 47 46 46 46 46 46 46 45 46 45 45 45 43 43 42 41
23 25 27 27 27 29 30 31 32 33 33 35 36 37 38 40 43 43 45 47 47 47 47 47 47 47 47 47 47 48 48 47 46 45 44 44 44 44 44 44 43 42 42 41
22 24 25 25 26 28 29 31 32 34 35 36 37 37 37 39 42 44 44 46 47 47 47 47 48 49 47 48 49 48 48 47 47 46 45 44 44 43 44 43 42 42 41 40
21 24 26 26 26 28 28 31 32 33 34 35 36 37 38 38 40 43 46 46 47 47 47 48 49 50 50 50 49 49 49 48 47 46 45 45 44 43 43 42 42 41 40 39

GEFSCGP_500_meanwind_162.txt.gz
Wind_Speed
26 27 29 30 31 34 36 39 41 41 41 45 48 51 51 53 54 54 55 55 55 54 53 52 50 50 49 47 46 45 43 42 40 39 38 36 35 34 33 32 32 30 29 28
25 26 28 28 29 31 33 36 39 41 41 43 47 50 51 53 54 53 55 56 56 56 55 53 52 51 50 49 47 46 45 43 41 40 39 38 37 35 35 34 33 31 30 29
24 25 27 28 29 31 31 34 37 40 40 42 46 49 50 52 53 53 55 56 56 57 56 55 53 52 51 49 47 46 45 44 42 41 40 39 38 36 35 34 33 32 31 30
23 24 26 27 27 30 31 31 34 37 40 42 45 49 49 50 53 53 54 55 56 57 57 56 54 52 51 50 48 47 46 45 44 42 41 39 37 36 34 34 34 33 32 31
23 24 26 26 26 28 29 30 32 35 38 41 44 48 49 50 51 52 53 54 56 56 57 56 55 53 51 51 49 48 47 46 45 44 42 40 39 37 36 36 35 34 33 32
23 24 26 26 27 27 28 29 31 33 36 40 39 45 47 48 48 49 51 52 55 56 58 57 55 55 53 52 51 49 48 47 46 45 43 41 39 39 38 37 36 35 34 33
23 23 24 26 27 27 28 29 30 32 35 37 37 42 45 44 46 47 49 52 54 56 58 58 57 56 54 53 52 51 49 48 47 46 44 42 40 40 39 38 37 36 35 34
24 22 23 24 26 28 28 28 29 31 33 33 35 39 42 42 43 45 48 51 53 55 58 58 58 56 55 54 53 52 50 48 48 47 45 43 42 41 40 39 38 37 36 35
24 23 23 24 26 28 29 29 29 31 34 35 35 36 38 41 42 44 47 49 51 53 56 58 58 57 56 55 54 52 51 49 48 48 47 45 44 43 41 40 39 38 37 36
23 24 23 24 26 27 30 30 31 32 33 35 37 35 35 38 42 44 45 48 50 51 54 57 58 58 56 56 55 53 51 50 49 49 48 47 45 44 43 42 41 39 38 37
24 24 23 24 25 27 29 31 32 34 35 35 37 35 33 35 39 43 44 46 49 51 53 55 56 57 57 56 56 55 52 51 50 50 49 48 47 45 45 44 42 41 39 39
25 26 24 24 25 27 30 32 33 35 36 37 38 35 34 34 37 41 44 46 48 50 52 54 56 55 55 56 56 56 54 52 51 50 50 49 48 47 46 45 43 42 41 40
27 27 26 24 25 27 30 31 33 35 37 38 39 36 33 34 37 39 43 46 48 50 51 53 55 56 55 56 57 57 55 53 52 51 50 50 49 48 46 46 45 44 42 42
28 28 28 27 26 29 30 31 33 35 38 39 38 36 34 34 36 39 42 45 47 49 51 52 53 55 56 55 57 58 57 55 54 53 51 50 50 49 48 47 47 46 45 44
29 30 29 28 28 30 31 32 34 36 37 39 37 37 35 34 34 36 40 43 45 47 49 51 53 54 55 55 56 58 57 56 55 54 53 51 50 50 49 48 48 47 46 45
29 30 30 30 29 32 32 31 33 35 36 37 37 37 36 36 36 37 39 42 44 46 48 49 51 53 55 54 55 57 57 57 56 54 53 52 51 51 50 49 49 48 47 46
29 29 30 31 30 32 31 29 32 34 35 35 36 36 37 38 38 38 39 42 44 47 49 50 51 52 54 55 55 56 57 57 56 54 53 53 52 51 51 50 49 48 47 46
29 29 30 31 31 31 27 28 30 32 33 35 36 37 37 37 38 38 39 41 43 46 49 51 51 52 53 53 55 55 56 56 55 54 53 52 52 52 51 50 49 48 47 46
29 29 30 30 30 30 26 28 30 32 33 34 35 35 37 37 38 38 39 41 43 45 48 51 51 52 53 53 53 54 55 56 56 55 53 53 52 52 52 51 50 49 48 47
29 30 30 30 31 29 26 28 31 33 34 34 35 36 36 38 39 38 39 40 42 44 47 50 52 52 52 53 53 53 53 55 55 55 54 54 53 52 52 51 50 49 48 47
30 31 31 30 31 29 26 28 31 33 32 33 34 36 37 38 39 39 41 41 42 44 47 50 51 52 51 51 52 54 54 54 55 55 55 54 53 52 52 51 50 50 49 48
29 31 31 32 31 28 28 30 31 31 33 34 34 35 36 37 38 40 41 42 42 43 45 48 51 52 52 51 51 52 54 54 54 55 54 53 53 53 53 52 50 50 50 48
29 30 32 32 30 29 29 31 32 33 33 33 34 35 36 36 36 38 40 41 42 44 44 47 49 51 51 52 52 52 52 53 54 54 54 52 51 52 52 51 50 49 49 49
30 31 32 32 30 29 30 31 32 34 34 34 34 34 36 37 36 36 38 40 42 44 45 46 48 50 50 50 51 51 51 51 52 53 54 53 52 51 51 50 50 48 48 47
30 30 31 31 29 31 31 32 32 33 34 34 34 33 35 36 36 36 37 40 40 43 45 46 47 47 48 49 50 50 50 49 50 51 52 53 53 52 51 50 49 48 48 47
29 30 30 29 28 30 29 31 32 33 32 33 34 35 35 36 36 36 38 40 41 42 44 45 47 47 47 48 49 49 48 48 48 48 49 50 51 51 50 50 49 48 47 47

GEFSCGP_500_meanwind_168.txt.gz
Wind_Speed
24 24 25 25 26 26 27 28 29 29 31 33 33 33 34 37 38 42 46 48 50 51 52 54 54 54 55 55 55 55 53 52 51 49 48 47 46 45 44 42 41 39 38 37
23 23 23 24 23 24 25 26 27 28 29 31 32 32 32 35 37 39 44 47 49 51 53 54 53 54 55 55 55 54 53 52 51 50 49 48 47 46 44 43 42 41 39 37
23 23 23 22 21 22 23 25 25 27 28 29 30 30 29 32 36 38 42 45 48 50 52 54 53 54 54 54 54 54 53 53 52 51 50 49 48 47 45 43 42 41 40 38
24 23 23 22 21 22 23 24 25 26 27 27 27 28 27 29 34 36 40 43 46 49 51 53 54 54 54 53 53 55 54 53 53 52 51 49 48 46 45 44 43 42 41 39
25 24 23 22 21 22 22 24 25 25 26 26 25 27 25 26 31 34 38 41 44 47 51 52 54 54 53 54 54 55 54 53 53 53 51 50 49 47 46 45 44 43 42 40
25 25 24 23 22 22 23 23 25 26 26 28 25 27 24 26 29 32 36 40 43 45 50 51 53 54 54 54 55 55 55 54 53 52 51 50 49 48 47 46 45 44 42 41
26 26 24 24 22 23 24 24 25 26 27 27 26 27 26 26 28 31 35 38 42 44 47 50 52 53 54 54 54 55 55 54 53 52 52 50 49 48 48 46 45 44 43 42
27 25 24 23 22 23 24 25 25 26 27 27 26 27 27 27 28 30 33 37 41 44 46 48 50 52 54 54 54 55 55 53 52 52 51 51 50 49 48 47 46 45 44 43
27 25 23 23 23 23 24 24 25 27 28 28 27 28 27 27 28 30 33 37 40 44 45 47 50 52 54 55 55 55 55 53 53 52 52 51 50 49 48 48 47 46 45 44
27 27 24 24 23 23 24 24 26 27 28 28 27 27 27 27 30 30 32 36 40 43 45 46 49 51 53 55 55 56 56 56 53 52 51 51 49 49 48 48 47 46 45 44
27 27 26 25 24 24 24 24 26 28 29 30 30 27 26 27 30 32 33 36 39 41 44 46 49 51 52 54 55 56 56 55 54 52 51 51 50 50 50 49 47 46 46 45
27 27 27 26 25 24 25 25 26 28 29 31 33 29 27 27 29 32 33 36 37 41 43 45 48 51 53 55 56 56 56 54 53 52 52 52 51 51 51 49 48 47 46 46
28 28 28 27 26 26 26 26 27 28 30 32 33 31 28 28 28 31 33 35 37 40 43 43 46 49 53 56 56 57 56 54 53 52 52 52 52 51 51 50 48 48 47 47
30 30 29 28 27 27 27 27 27 28 30 32 33 31 29 30 30 31 33 35 37 39 42 43 45 47 51 55 55 57 56 55 55 53 53 53 52 51 50 50 50 50 49 48
31 31 30 29 29 28 29 28 28 29 30 32 30 31 30 32 32 33 34 36 37 40 42 43 44 47 50 53 54 55 56 56 55 55 54 54 53 52 51 50 50 51 50 49
31 32 32 31 30 30 30 28 29 29 29 30 30 29 30 32 33 34 35 37 38 41 43 44 45 46 48 51 54 55 55 55 56 56 55 54 53 53 52 52 51 51 50 49
32 32 33 32 30 30 28 27 28 28 28 29 28 26 28 31 33 34 36 38 39 41 43 45 45 47 48 50 53 55 55 54 54 54 55 55 54 54 53 53 52 51 50 49
33 33 33 32 31 30 27 27 28 29 28 28 28 27 28 29 31 33 36 39 39 41 43 46 47 48 48 50 52 55 56 55 55 55 55 55 55 54 53 53 52 51 50 49
32 32 33 33 32 30 27 26 27 28 28 28 29 29 29 29 30 31 34 38 40 41 43 45 47 49 48 49 51 53 54 55 55 55 54 54 55 55 53 52 51 51 50 49
32 32 32 32 33 31 27 27 28 29 27 27 29 30 30 30 30 31 33 35 39 41 43 45 46 48 49 49 50 51 53 55 55 55 55 54 55 55 55 53 52 51 50 49
32 32 32 32 33 32 28 28 28 28 27 27 28 28 29 30 30 30 32 34 36 38 41 44 45 47 48 49 50 50 51 53 55 54 54 54 54 54 54 53 53 52 51 50
32 33 34 34 34 32 30 30 29 28 28 27 28 29 29 29 29 30 31 32 35 37 39 41 43 46 48 49 50 50 51 52 54 54 53 54 54 53 53 52 52 51 51 51
34 34 35 35 33 31 31 31 30 30 29 29 29 29 30 29 30 31 31 32 33 35 39 41 42 44 47 49 50 51 51 52 53 53 53 53 54 54 53 52 51 50 49 49
34 34 35 34 31 31 31 31 31 31 31 30 30 30 30 30 30 31 31 32 33 34 37 40 42 43 46 48 49 51 51 52 52 52 53 53 53 53 52 51 50 50 48 48
32 33 33 33 31 31 31 31 31 30 29 29 30 30 30 30 31 32 32 33 34 35 36 38 40 42 44 46 49 49 49 51 52 52 52 52 52 52 51 50 49 49 48 46
31 33 33 32 30 31 30 30 30 29 28 29 29 29 29 29 30 31 32 32 34 35 36 37 39 40 41 43 46 48 47 48 49 50 51 51 50 50 50 49 48 47 47 45

GEFSCGP_500_meanwind_174.txt.gz
Wind_Speed
31 30 30 30 30 31 31 31 30 30 29 34 36 35 34 36 37 37 38 38 37 40 42 42 44 46 47 50 51 52 53 53 54 54 54 53 51 50 50 49 48 47 45 44
32 31 30 30 29 30 30 30 29 29 29 31 33 33 32 32 34 35 35 36 35 37 40 41 43 45 46 48 49 51 52 53 53 54 54 53 52 50 50 49 47 47 45 44
32 31 31 30 29 30 29 28 30 30 29 30 33 33 30 29 30 33 34 35 35 35 37 40 42 44 45 46 49 50 52 52 52 53 54 53 53 51 51 50 48 48 47 45
31 30 30 31 29 29 28 27 29 29 29 30 31 33 28 26 26 29 30 32 34 35 37 39 40 42 44 44 47 49 51 51 52 52 54 53 53 51 50 50 50 48 48 46
31 30 31 31 30 29 29 28 29 28 29 29 28 31 26 24 24 25 26 29 32 35 36 37 39 40 42 44 46 48 49 51 51 52 52 53 53 51 50 50 50 48 47 46
30 30 31 31 30 29 30 30 29 29 29 29 27 29 28 25 24 25 25 27 30 34 35 36 38 39 41 43 45 47 47 49 51 52 52 52 53 53 53 51 51 48 47 47
31 30 30 29 30 29 30 30 30 30 29 28 27 29 26 26 26 26 26 26 28 31 34 35 37 39 40 42 44 46 47 47 48 50 52 53 53 53 53 51 51 49 48 46
32 32 30 31 30 30 29 28 28 30 30 29 27 28 26 25 26 27 27 28 28 28 31 34 36 37 40 42 43 45 47 47 47 48 50 52 53 53 53 52 51 49 47 47
33 33 31 30 30 29 28 28 27 28 30 30 29 28 28 27 26 26 27 27 28 29 31 34 34 36 39 42 44 45 47 47 47 47 48 51 52 52 51 52 52 49 46 45
34 34 31 30 30 28 27 27 27 27 29 30 30 28 28 28 27 27 28 28 28 29 31 33 35 35 37 41 43 45 46 47 45 47 48 49 51 52 51 51 51 48 46 44
35 34 33 31 30 28 27 27 27 29 29 31 32 30 28 28 29 29 29 30 31 31 32 33 35 36 38 40 42 45 46 47 46 47 48 49 51 51 50 49 47 48 48 47
35 35 33 31 30 28 27 27 27 29 30 32 33 31 27 28 29 30 31 31 31 32 34 35 36 37 39 40 41 44 47 47 46 47 49 49 49 50 49 49 48 47 47 46
36 35 35 33 31 30 29 28 29 29 30 31 33 33 28 29 30 31 31 31 30 32 34 36 38 39 40 42 41 43 47 48 48 48 49 48 48 49 48 47 48 47 47 46
36 36 35 34 33 32 31 30 30 30 31 31 32 32 29 30 31 31 31 31 30 32 34 37 39 40 41 42 42 43 46 47 49 50 50 49 48 48 49 49 48 47 47 46
36 37 36 35 33 33 32 31 31 32 33 33 31 31 29 29 30 31 32 32 32 32 35 37 38 40 41 42 44 45 46 46 48 50 51 50 50 50 50 50 49 48 47 46
37 38 38 36 34 34 34 32 33 33 33 34 33 30 28 29 29 30 31 33 34 34 35 37 39 40 41 42 43 44 46 47 50 51 51 51 52 52 52 51 50 48 47 47
38 38 38 37 35 37 35 32 32 33 33 34 33 31 30 29 28 29 30 31 33 34 35 37 39 40 41 42 43 44 46 49 50 51 51 51 51 52 52 52 51 49 47 47
39 38 39 39 37 38 34 32 33 34 33 33 33 32 31 30 29 29 29 30 31 33 35 36 38 40 41 42 43 44 46 49 51 50 51 51 50 49 50 51 51 50 49 47
39 38 38 39 39 39 34 32 33 34 33 31 32 31 31 30 30 30 30 30 31 32 34 36 38 39 40 41 43 44 46 47 48 49 49 51 50 49 48 50 50 50 49 48
38 37 38 38 38 38 34 33 33 34 33 30 31 30 30 30 31 30 31 31 31 32 33 35 38 40 41 42 43 44 45 46 48 47 49 51 51 50 49 50 50 50 49 48
38 38 37 37 38 37 34 34 34 34 33 33 32 31 31 31 31 32 32 32 32 33 34 35 36 38 41 43 44 44 44 46 47 48 48 50 52 51 51 50 50 50 49 48
40 39 37 37 38 37 35 36 36 35 35 34 33 32 31 31 32 32 32 32 33 32 33 34 35 37 39 43 45 46 45 46 47 48 49 49 50 52 52 51 51 50 50 48
40 38 38 38 37 35 36 37 36 36 35 35 34 33 32 32 31 32 32 33 33 33 33 34 35 36 37 40 43 45 46 47 47 48 49 49 50 51 52 52 51 50 50 49
39 38 39 38 36 36 36 37 37 36 35 34 34 33 33 32 31 30 31 32 33 34 35 35 36 37 37 38 41 43 45 47 47 47 47 48 48 48 49 50 50 49 48 48
38 39 39 39 37 37 36 35 35 35 34 33 33 32 32 31 30 30 31 31 31 32 34 35 36 38 38 38 39 41 44 46 47 47 46 47 47 47 48 48 48 47 47 47
36 37 39 38 36 36 35 35 35 34 33 33 32 31 31 31 30 29 30 31 31 32 33 34 35 35 36 36 37 39 42 44 46 47 47 47 46 45 46 47 48 48 47 46

GEFSCGP_500_meanwind_180.txt.gz
Wind_Speed
30 30 29 29 29 29 30 31 31 31 32 34 34 33 33 33 35 37 38 39 42 43 43 42 43 43 44 45 45 45 46 48 49 49 50 50 51 52 52 53 53 51 51 50
29 30 29 29 29 29 31 31 32 32 31 34 34 32 32 32 32 34 35 37 39 40 40 39 40 42 42 43 44 44 45 47 49 49 49 49 50 51 52 51 51 51 51 50
29 30 29 29 29 29 30 32 32 34 33 34 34 32 28 29 30 31 31 33 35 37 38 36 37 39 40 41 42 43 44 46 47 47 49 49 49 50 52 51 51 51 52 51
30 30 29 29 30 32 31 31 32 34 35 34 35 35 29 28 28 29 30 31 33 33 35 35 34 35 37 39 40 41 43 45 46 46 48 49 49 48 50 51 51 51 51 51
30 29 30 30 31 32 31 31 32 33 34 33 32 34 29 28 27 27 28 29 30 30 31 33 33 34 34 36 38 39 41 43 45 46 46 48 49 48 48 50 50 51 51 49
31 31 31 31 31 31 32 32 32 32 32 32 31 33 30 27 27 26 26 27 27 27 29 31 33 33 34 36 38 39 40 42 45 46 47 48 48 47 47 48 49 51 50 51
32 32 32 32 31 31 32 32 32 32 33 32 31 32 30 29 27 25 25 25 26 26 27 29 31 32 33 35 37 38 39 40 43 45 46 46 47 46 47 48 48 49 49 49
33 33 32 32 32 32 32 31 31 32 33 32 31 31 28 27 26 24 24 24 24 26 27 29 30 31 33 34 35 37 38 40 42 44 44 44 45 45 46 47 46 47 47 48
34 33 32 32 32 33 33 32 31 32 32 32 31 29 27 25 24 24 24 24 25 25 26 27 28 30 32 33 34 36 37 39 41 44 45 46 45 45 46 46 46 48 47 47
34 34 33 32 32 32 31 31 31 31 33 34 33 30 27 24 24 24 24 24 25 27 27 27 28 29 31 33 34 35 37 39 40 41 43 43 45 46 47 47 47 48 48 48
34 35 34 33 33 32 31 31 31 31 32 34 35 32 27 26 25 25 25 25 25 25 27 27 28 29 30 31 33 35 36 38 39 40 42 42 42 44 45 45 46 48 48 48
33 34 34 33 33 33 32 31 31 31 32 33 34 33 27 27 27 26 26 26 26 27 28 28 27 28 29 30 32 35 36 38 39 40 40 40 41 43 45 44 45 46 47 47
34 34 34 34 33 33 32 31 31 31 33 33 34 32 28 27 27 26 26 26 26 27 29 29 29 29 30 30 33 35 36 38 39 40 40 39 40 43 45 45 44 45 47 47
36 35 34 34 33 33 33 32 31 32 33 33 33 32 28 28 27 27 27 28 28 28 28 29 30 31 31 32 33 34 37 40 41 40 39 41 42 42 44 45 45 46 48 48
37 37 36 35 33 34 34 33 32 32 33 34 32 32 29 30 29 28 27 28 28 29 29 30 30 31 33 33 35 37 37 40 42 42 40 40 42 43 43 45 45 45 47 48
38 38 37 36 35 36 36 34 33 34 34 34 34 31 29 29 28 28 28 28 28 28 29 30 31 32 33 34 35 37 39 41 42 42 41 42 42 43 44 46 47 46 46 46
39 39 39 38 36 38 37 33 34 34 34 33 33 31 30 28 28 28 29 29 28 28 28 29 31 32 33 34 36 37 39 40 41 41 42 43 43 44 44 45 47 48 46 44
40 39 39 39 39 39 36 33 33 33 32 31 31 30 30 29 28 28 29 29 28 28 28 29 30 30 32 34 35 38 40 40 42 42 42 43 44 45 46 46 46 47 48 46
39 39 40 40 40 40 35 33 33 33 31 30 31 31 30 29 29 28 29 29 28 28 29 29 30 30 32 33 35 37 39 40 40 42 42 43 44 45 47 47 46 45 46 47
39 39 40 40 41 41 36 34 34 34 32 30 31 31 30 30 30 29 30 30 30 29 28 29 30 30 31 32 34 35 37 39 40 41 42 43 43 45 46 45 44 44 45 46
41 41 41 40 41 41 36 34 33 33 32 31 31 30 30 30 30 29 29 29 29 29 29 29 29 29 30 31 33 35 36 37 40 41 42 42 43 45 45 44 43 43 44 45
42 41 40 40 41 39 35 34 33 33 33 32 32 31 31 31 30 30 29 29 29 29 29 30 30 30 30 31 32 34 35 36 38 39 41 42 43 44 44 43 44 45 45 45
42 41 40 40 40 36 35 35 34 33 33 32 32 32 32 31 30 30 30 30 30 30 30 30 30 30 31 31 32 33 34 35 36 37 39 41 43 43 43 43 43 44 44 45
41 39 39 39 37 35 35 34 33 34 33 33 32 32 31 31 30 30 30 29 28 28 29 30 30 30 30 31 31 32 33 33 34 36 38 40 42 43 43 43 43 44 44 44
39 39 39 39 36 36 34 34 34 34 34 33 33 32 32 32 31 30 30 29 28 28 28 29 29 30 30 30 30 31 32 32 32 34 36 38 40 41 43 44 44 44 43 43
36 37 38 38 35 35 34 33 34 34 34 34 33 32 32 31 31 30 30 29 29 29 28 29 29 29 29 29 30 30 31 31 31 31 32 35 37 39 41 43 44 44 43 43

GEFSCGP_500_meanwind_186.txt.gz
Wind_Speed
30 30 30 30 30 32 33 34 34 34 36 37 37 37 37 38 40 40 41 41 40 40 41 42 43 45 46 47 47 49 48 49 52 53 53 52 52 53 52 53 53 52 51 51
31 31 31 31 33 33 34 35 36 36 36 38 37 36 36 37 38 39 41 41 39 40 40 41 42 43 45 46 46 47 47 49 50 51 51 52 52 52 52 53 53 52 52 52
32 31 31 32 33 34 34 36 37 38 37 38 39 36 34 36 37 38 39 39 40 40 39 39 41 42 43 45 45 46 47 48 49 49 51 52 52 52 52 53 52 52 52 51
32 32 32 33 34 35 35 37 38 39 38 37 38 38 33 34 35 36 38 38 39 38 38 39 40 41 42 42 43 45 44 45 46 47 49 50 51 51 52 52 51 52 52 51
33 33 33 34 35 36 37 37 38 38 37 37 36 38 35 35 35 35 36 37 37 36 37 37 38 39 39 40 41 42 42 44 45 46 47 47 49 50 51 51 51 51 52 51
34 34 34 34 35 36 36 37 37 37 36 37 35 37 36 35 34 35 35 36 36 35 35 35 36 37 38 38 38 40 42 43 44 45 45 45 45 47 48 48 50 49 50 50
35 34 34 34 35 35 35 36 37 37 37 37 36 37 36 35 34 36 36 35 34 34 33 33 35 36 35 35 37 39 40 40 41 42 42 44 45 45 46 47 47 48 48 48
37 36 35 35 35 36 36 36 36 38 39 38 36 37 35 34 35 36 35 34 33 33 33 32 33 34 34 35 36 37 38 38 40 40 41 42 43 43 44 46 47 47 47 46
38 37 36 36 36 36 37 36 36 38 39 39 38 37 35 34 36 35 34 33 33 32 32 31 31 31 33 35 37 37 37 37 38 39 39 41 42 42 43 44 46 46 46 46
38 38 36 36 36 36 36 37 37 37 39 41 40 38 37 36 35 35 34 32 30 29 30 31 31 32 33 34 36 37 37 36 38 38 38 39 40 41 42 43 44 44 45 45
38 38 37 37 36 36 36 36 37 38 39 41 42 39 36 36 35 35 33 31 30 29 30 30 30 30 32 33 35 36 36 36 36 37 37 38 39 39 41 42 44 44 43 44
39 39 39 37 37 36 36 37 37 38 40 41 42 40 36 36 36 35 33 31 30 30 30 30 29 29 31 32 34 35 36 36 37 37 37 37 37 38 39 41 43 43 43 44
40 41 40 39 38 38 38 38 38 39 40 40 41 41 37 36 37 36 34 32 31 30 30 30 29 29 30 32 33 34 35 36 37 37 36 35 36 37 39 40 41 43 42 42
42 42 41 40 39 39 39 38 39 40 41 41 41 40 36 36 37 36 33 32 31 31 31 30 28 28 30 32 33 34 34 35 36 36 36 36 36 37 37 38 40 41 40 41
42 43 42 41 40 40 39 39 39 40 40 41 40 39 36 35 36 35 33 31 31 30 31 31 30 29 29 31 31 32 32 33 35 35 35 36 37 38 38 38 39 40 39 40
42 43 43 42 41 42 42 39 38 39 40 40 39 37 35 36 36 34 32 30 30 30 30 30 30 30 30 30 31 32 33 33 33 34 34 34 37 38 37 37 38 40 39 40
44 44 44 44 42 44 44 39 39 39 39 39 38 36 36 36 35 33 32 31 31 31 30 30 30 30 30 31 31 31 32 33 33 34 35 35 36 37 38 38 38 38 38 40
45 44 45 45 45 46 43 40 40 40 39 38 38 36 36 36 34 32 32 32 32 31 30 31 31 31 30 30 30 30 31 32 33 35 36 38 38 37 38 38 38 38 38 38
43 43 44 45 46 47 42 40 40 41 39 38 38 36 36 36 34 32 33 33 32 32 32 32 32 31 30 30 31 30 30 30 31 33 35 37 39 38 38 39 39 40 39 39
42 42 43 45 46 46 41 40 40 42 41 38 38 37 36 35 35 32 32 32 32 32 32 32 32 31 30 30 30 30 30 30 30 31 33 35 36 37 38 38 39 39 40 40
42 42 42 43 45 45 42 41 41 41 40 38 38 37 36 35 34 32 31 32 31 31 31 30 30 30 30 30 29 29 29 29 30 30 31 33 34 36 37 39 40 39 39 39
42 42 42 42 44 43 41 42 41 40 39 38 37 36 36 35 34 33 32 31 31 30 30 29 28 28 29 29 29 28 28 28 28 29 30 31 33 35 36 38 38 38 39 39
41 41 42 43 42 41 41 41 40 39 39 38 37 37 36 35 33 32 32 31 30 29 29 28 27 27 27 27 27 27 27 27 27 27 28 29 31 33 34 35 37 37 38 38
40 39 41 42 40 40 39 39 39 39 39 38 37 36 35 34 32 31 31 30 30 29 28 28 27 26 26 26 26 27 27 27 27 27 27 28 30 31 33 34 36 37 37 37
40 40 41 41 39 39 38 38 38 37 37 37 36 35 35 34 32 31 30 30 29 28 28 28 27 26 26 26 26 26 26 27 27 27 28 29 29 30 31 33 34 35 36 36
37 38 40 40 38 40 38 37 36 36 36 36 35 35 34 34 32 31 30 29 28 28 28 28 27 26 26 27 27 26 26 26 27 28 28 28 29 29 30 31 32 33 35 35

GEFSCGP_500_meanwind_192.txt.gz
Wind_Speed
27 27 28 28 29 30 30 31 31 31 33 34 34 35 34 37 37 37 37 37 38 39 40 41 41 41 41 43 45 47 49 51 51 52 52 53 52 53 54 54 55 56 57 56
28 29 29 30 31 31 32 32 32 33 33 34 34 35 34 35 35 35 36 36 37 38 40 40 41 40 41 42 43 45 47 49 50 51 52 53 52 52 54 54 55 55 56 55
30 30 31 31 32 33 33 34 34 34 34 35 36 35 34 34 34 34 35 35 37 38 39 40 40 40 40 42 43 44 45 47 49 51 51 52 51 52 52 53 54 53 54 55
31 31 32 32 33 34 34 35 35 36 36 36 36 37 34 34 35 34 35 35 37 38 39 39 39 39 40 41 42 44 45 46 48 49 49 50 51 52 52 52 52 53 54 54
33 32 33 33 34 34 34 35 36 37 37 37 36 38 35 35 35 35 36 37 37 38 39 40 40 39 39 40 42 43 44 46 48 48 48 49 50 50 51 52 52 51 52 53
34 34 33 34 34 35 35 36 37 38 38 38 37 38 37 36 35 36 37 38 38 39 40 40 40 41 41 40 41 42 43 44 45 46 46 47 48 48 49 49 50 50 51 52
35 35 35 35 35 35 36 36 37 39 39 39 38 38 37 36 35 37 38 39 39 40 41 40 40 40 40 40 40 41 42 43 44 45 45 46 47 48 48 47 48 49 50 50
37 37 36 36 36 36 36 35 36 38 40 40 39 38 37 35 36 38 39 39 40 40 40 40 39 39 38 39 39 40 41 42 44 44 43 44 47 48 48 46 46 48 49 50
39 39 38 38 37 36 37 36 36 38 40 41 40 39 38 35 36 38 39 40 41 41 40 39 37 38 39 38 39 38 39 41 40 41 40 41 43 45 45 45 44 46 48 48
40 40 39 39 39 38 37 37 37 38 40 42 41 40 39 36 34 37 39 40 40 40 39 37 37 37 38 38 37 36 38 40 39 39 40 41 43 43 43 43 43 43 44 45
40 41 40 39 38 38 38 38 38 39 40 41 42 40 38 35 35 36 38 39 39 39 37 36 35 36 37 37 37 37 37 38 38 39 39 40 41 41 41 41 41 42 44 44
39 40 40 39 38 37 38 38 38 38 39 40 42 40 36 36 37 37 38 38 39 38 37 36 36 36 37 37 38 36 36 36 37 38 39 40 39 38 38 39 40 40 41 43
39 39 39 39 38 37 37 36 36 38 39 40 41 40 37 37 38 38 39 39 39 38 38 38 37 36 36 36 36 35 34 35 35 37 39 39 39 38 39 39 40 40 40 42
40 40 39 39 38 39 38 37 37 38 39 40 40 39 37 37 38 39 39 39 39 38 38 38 37 36 35 35 35 34 34 33 34 35 36 37 37 38 38 38 39 40 39 40
41 41 40 40 40 40 40 39 39 39 39 41 40 39 37 36 37 38 38 39 39 38 38 37 37 35 34 34 34 33 33 33 33 33 34 35 36 37 36 36 37 38 38 39
43 43 43 42 41 42 42 40 39 39 39 40 41 39 37 37 37 36 37 38 38 37 36 35 34 33 33 32 32 32 32 31 32 32 33 34 33 34 33 34 35 36 37 38
43 44 44 44 42 43 43 39 38 39 39 40 40 40 38 38 38 38 38 38 37 36 35 33 32 32 31 30 31 30 30 30 31 31 32 32 31 31 32 32 33 33 35 35
42 42 43 44 43 44 41 39 38 39 39 39 40 38 38 38 38 37 37 37 36 35 34 33 31 29 28 27 28 28 28 29 30 30 29 29 30 30 31 31 31 31 32 33
40 40 41 42 43 44 41 39 39 39 39 38 38 38 38 38 37 36 36 36 36 34 32 30 29 27 26 27 27 27 27 28 29 28 29 29 30 31 32 31 31 31 31 32
39 39 39 41 42 42 40 38 39 40 40 38 38 38 37 36 36 35 34 34 33 31 30 29 29 28 27 26 26 26 27 27 27 27 28 28 29 30 31 30 29 30 30 32
38 38 38 39 40 41 39 38 38 39 40 39 39 38 37 36 36 35 33 32 31 30 29 29 28 27 27 26 26 26 26 25 26 26 27 27 28 28 29 30 29 30 30 32
38 38 38 38 39 39 37 37 38 39 39 38 37 36 36 36 35 34 32 31 30 30 29 28 28 28 27 26 25 26 26 26 26 26 26 26 27 28 28 30 30 29 29 29
38 38 38 39 39 38 38 39 39 38 38 36 35 35 35 34 33 32 32 31 30 30 28 28 28 27 26 25 25 26 26 26 25 26 25 26 27 27 27 28 29 28 28 29
36 36 37 38 36 36 37 37 37 37 37 36 36 35 35 33 31 30 30 30 30 28 28 28 27 26 25 25 24 25 25 25 24 24 24 25 26 26 26 26 27 27 27 28
34 35 36 36 35 36 35 36 37 36 36 36 35 34 34 33 31 30 30 30 29 28 27 27 26 25 24 24 23 22 22 23 24 24 24 24 24 25 25 26 26 27 27 26
32 34 35 35 34 35 34 34 34 34 34 33 33 33 32 32 30 29 29 28 27 26 26 26 25 24 23 23 23 22 22 22 23 24 24 24 24 24 25 25 26 27 26 25

GEFSCGP_500_meanwind_198.txt.gz
Wind_Speed
31 31 31 31 32 32 33 33 33 32 34 35 36 35 35 37 37 38 39 40 41 43 44 44 44 45 45 45 46 46 47 47 47 49 50 51 52 53 54 55 54 54 54 55
33 32 32 33 33 34 34 35 35 35 35 37 37 37 36 37 38 39 40 41 42 44 44 44 45 45 45 45 45 45 46 46 47 48 48 49 50 51 53 55 54 55 55 55
35 34 34 35 35 35 35 36 36 37 37 37 39 38 36 37 38 39 41 41 42 43 43 44 45 45 44 44 44 45 45 45 45 46 46 47 48 49 50 53 55 56 56 55
36 35 35 36 36 37 37 37 38 38 39 39 40 41 37 37 38 39 40 40 41 42 43 44 44 44 44 43 44 44 44 43 44 45 46 46 46 47 48 51 53 54 55 55
37 37 37 37 37 39 39 39 40 40 41 42 40 43 39 38 38 39 39 40 41 41 42 43 43 43 43 43 43 42 43 43 44 44 45 46 47 48 49 50 52 52 53 54
39 39 39 39 38 39 39 40 41 42 43 43 40 42 42 39 39 39 40 40 41 41 42 42 42 42 42 43 43 42 42 43 43 44 45 46 47 48 49 49 51 51 52 54
40 40 40 40 40 39 39 40 41 43 43 43 42 43 42 41 40 40 40 40 40 41 41 42 42 42 43 43 43 43 43 42 42 43 44 45 46 47 47 47 48 50 51 51
42 42 40 40 40 40 40 39 40 42 44 44 43 43 42 42 42 42 41 40 40 40 41 42 42 42 43 44 44 43 43 43 43 43 44 45 45 45 45 46 47 47 48 49
42 42 42 41 40 40 39 39 39 41 43 44 43 43 42 41 42 42 41 40 41 41 41 41 42 42 42 43 43 43 44 44 42 42 43 44 44 44 44 44 45 45 46 48
42 42 41 41 40 40 39 39 39 40 42 43 43 41 41 40 40 41 41 40 40 41 41 41 42 42 43 43 44 43 44 44 43 43 42 42 42 42 43 44 44 44 45 46
42 43 43 41 40 39 39 40 40 41 41 43 43 41 39 40 40 40 40 40 40 41 41 41 41 42 43 44 44 43 43 43 44 43 40 40 40 40 41 42 43 43 44 45
43 44 44 43 41 40 40 40 40 41 41 42 43 42 38 39 39 40 41 41 41 41 41 41 42 42 43 43 43 43 42 41 42 41 40 39 38 39 40 40 40 41 42 42
42 43 43 43 42 40 40 40 40 41 42 42 43 42 39 39 39 40 41 40 40 40 41 42 42 42 41 41 41 40 39 39 40 40 38 37 38 38 37 37 38 39 39 40
42 43 43 42 41 41 40 39 39 41 42 42 42 41 39 39 39 40 40 40 40 40 41 42 42 41 41 40 40 39 38 39 39 38 37 37 37 37 37 37 37 37 37 37
42 43 43 42 41 42 41 40 40 42 42 43 41 40 39 38 39 40 40 41 41 41 41 42 42 41 40 40 39 39 38 38 38 38 37 36 36 36 36 37 37 37 36 35
43 43 43 43 41 42 43 41 41 41 41 41 41 40 37 38 39 40 41 42 42 42 42 42 42 41 41 40 40 39 37 37 37 37 36 36 36 36 35 36 36 36 36 35
43 43 43 43 42 43 44 40 40 40 40 41 41 39 39 39 39 40 40 41 43 43 43 42 43 41 40 40 39 38 38 38 37 36 35 36 36 36 36 36 35 34 35 34
41 42 43 43 43 44 41 39 39 39 39 39 40 39 40 41 40 40 41 41 42 43 42 42 42 41 40 39 38 38 37 36 35 35 35 34 34 34 34 34 33 33 32 33
40 41 42 43 43 44 40 39 39 39 39 39 40 40 40 40 40 40 40 40 41 42 41 41 41 41 39 37 37 36 35 34 34 34 34 33 32 31 31 31 32 31 31 32
37 38 40 41 41 41 39 39 39 40 41 39 40 40 40 40 40 39 39 39 39 39 39 38 38 37 36 36 36 35 33 32 32 32 31 31 30 29 29 29 29 29 28 28
37 38 38 39 40 40 39 39 38 39 40 39 39 40 40 40 40 38 37 37 38 38 37 36 35 35 34 34 33 33 31 31 30 30 29 28 28 28 28 28 28 28 27 27
37 38 38 38 39 38 37 38 38 39 39 39 39 39 39 39 38 37 36 36 36 36 35 34 33 32 32 32 31 30 29 29 28 27 26 26 25 25 25 25 26 27 27 26
36 36 37 38 37 36 37 37 37 38 39 38 38 38 38 38 37 36 36 36 36 35 34 33 33 32 31 31 30 28 26 26 25 24 24 24 23 23 23 24 25 26 25 25
34 34 35 36 36 36 36 36 37 38 38 38 38 37 37 36 35 35 35 35 35 34 33 32 31 30 28 27 27 26 25 24 23 22 22 22 22 22 22 23 23 24 24 24
32 33 34 34 34 35 35 35 36 37 37 37 37 36 36 35 34 33 33 32 32 31 31 30 29 27 26 25 23 23 22 21 21 21 21 21 21 22 21 21 21 22 21 22
30 33 35 35 34 35 34 34 35 36 36 36 35 34 34 34 33 32 31 31 30 29 28 27 27 26 25 24 23 23 22 22 21 21 21 21 21 21 21 20 20 21 20 20

GEFSCGP_500_meanwind_204.txt.gz
Wind_Speed
34 34 33 33 33 34 34 34 33 33 34 35 34 33 33 34 34 34 34 35 35 37 37 37 38 39 41 42 43 44 46 47 48 49 50 50 50 51 52 53 54 55 56 57
36 35 34 35 35 36 36 36 35 35 36 37 36 35 34 35 34 34 35 36 36 37 39 39 40 41 43 44 45 46 47 48 49 50 51 51 51 52 52 53 54 55 56 57
38 37 37 37 37 37 37 37 37 37 37 38 39 37 35 35 35 36 37 37 38 39 40 41 41 42 43 45 46 47 48 49 50 51 52 52 52 52 52 52 53 54 56 56
39 38 38 38 38 38 38 38 39 39 39 39 40 41 37 36 37 37 37 38 39 41 41 40 41 42 43 44 46 47 48 49 50 51 52 52 52 52 51 51 51 53 54 55
39 38 38 38 38 38 39 39 40 41 41 42 40 42 40 38 37 38 39 39 40 41 41 41 41 42 43 44 45 46 47 48 49 50 51 51 52 51 51 50 50 51 52 53
39 39 39 38 38 39 39 40 41 42 43 44 41 42 42 39 38 39 39 40 40 41 41 41 41 41 43 44 45 45 46 47 48 49 50 50 51 50 49 49 48 49 50 51
40 40 40 40 39 39 39 40 41 43 44 45 43 43 43 40 39 39 40 40 40 41 41 42 42 42 42 43 44 44 45 46 46 47 48 48 49 49 48 47 47 47 48 49
40 40 40 40 40 40 40 40 41 44 45 45 44 44 43 41 40 39 40 40 40 41 41 42 42 43 43 43 43 44 45 45 45 45 46 46 46 47 47 47 47 46 46 48
41 41 40 40 40 40 40 40 40 43 44 45 45 45 43 41 40 39 40 40 40 41 41 41 41 42 43 42 42 43 44 44 44 44 44 44 45 45 46 47 46 45 46 46
41 42 41 40 40 41 41 40 40 42 43 44 45 44 42 41 39 38 38 38 38 39 39 39 40 41 42 42 42 44 43 43 43 43 43 43 44 44 44 45 45 45 45 46
41 42 42 41 40 40 40 40 40 41 42 43 44 42 41 40 39 38 38 38 37 37 37 38 38 40 41 41 41 41 42 42 43 43 43 43 43 42 43 43 43 43 43 43
40 41 41 41 40 40 40 40 39 40 41 43 44 42 39 39 39 38 37 37 37 37 37 37 38 39 40 40 40 41 41 42 42 42 41 41 41 40 41 41 41 41 41 41
40 41 41 41 40 39 39 39 39 39 41 42 42 41 38 38 38 37 37 37 37 36 36 36 37 38 38 39 40 41 41 42 41 41 41 41 40 39 40 40 39 39 40 40
40 41 41 41 40 39 39 38 38 39 41 41 40 39 37 37 37 37 37 37 37 36 37 37 37 38 38 38 39 40 40 41 42 41 40 40 39 39 38 39 39 39 39 39
39 40 39 39 39 39 39 37 37 38 39 40 39 38 36 36 38 38 38 38 38 37 37 37 38 38 38 38 39 40 40 41 41 40 39 39 39 39 38 37 38 37 37 37
40 40 39 39 38 39 40 38 37 37 38 39 38 38 35 36 38 39 39 38 38 37 38 38 38 38 38 38 38 39 39 39 39 39 38 38 37 37 37 36 36 35 35 35
40 41 42 41 40 41 41 37 37 37 37 38 38 37 37 38 39 39 39 39 38 38 38 38 39 39 38 38 38 38 38 37 37 36 36 36 36 36 36 36 35 34 34 33
40 40 42 42 41 42 39 38 38 38 38 38 39 38 38 38 39 39 38 38 38 38 38 38 37 37 37 37 37 37 36 36 36 35 35 34 35 34 34 34 34 33 32 32
37 38 40 40 41 41 38 37 37 38 38 37 37 37 37 37 37 37 37 37 37 37 37 36 36 36 36 36 36 36 36 36 35 35 35 35 34 33 32 32 31 31 31 31
36 36 37 38 39 39 35 35 35 36 36 34 34 34 34 35 36 35 36 36 37 37 36 36 36 37 37 37 37 36 36 36 36 36 35 34 33 32 32 32 31 30 29 28
33 34 35 35 36 36 33 33 34 35 34 33 32 33 33 34 34 34 35 36 37 37 37 37 37 37 37 37 37 37 36 36 36 35 35 33 32 32 31 31 30 28 26 25
31 32 32 32 34 33 32 33 33 33 33 33 33 32 33 33 33 34 35 36 37 37 37 37 37 38 37 37 36 36 36 35 35 34 33 32 31 30 29 28 27 26 25 24
30 30 30 31 30 30 31 31 31 31 32 31 32 32 33 33 33 34 34 35 35 36 36 36 36 36 36 35 35 34 33 33 32 31 30 29 29 28 27 26 24 25 25 25
29 29 30 31 30 30 30 30 30 30 31 31 31 32 32 32 33 33 34 34 34 34 34 34 34 33 33 32 31 31 30 29 28 26 26 25 25 25 25 25 24 24 24 24
27 29 30 29 28 28 28 29 30 30 31 31 31 32 32 32 32 32 32 32 31 31 30 30 30 30 29 28 27 26 26 26 25 24 24 24 23 23 23 23 22 22 22 22
26 28 29 28 28 28 28 28 28 28 28 29 30 30 30 31 30 30 30 30 29 29 28 27 27 27 26 25 25 24 24 24 24 23 23 23 22 22 22 22 21 22 22 21

GEFSCGP_500_meanwind_210.txt.gz
Wind_Speed
39 39 38 37 38 40 40 39 37 37 37 37 37 35 35 35 35 35 35 36 36 36 37 37 38 39 40 40 41 42 42 43 44 44 44 45 45 46 47 47 49 50 51 52
41 41 39 39 40 40 40 39 39 39 39 39 39 37 36 37 36 36 36 36 37 37 38 39 40 40 41 41 42 43 43 44 45 45 46 46 47 47 48 48 49 50 51 52
43 43 42 41 41 41 41 40 39 40 40 41 41 39 37 37 37 37 37 37 37 38 38 40 41 41 41 42 43 44 45 45 46 47 47 47 48 49 49 49 49 50 51 53
44 44 44 43 43 42 42 41 41 42 42 43 42 42 37 37 37 37 37 37 38 38 39 40 41 42 42 43 44 45 45 46 47 48 48 49 49 49 50 50 51 51 53 54
45 44 44 44 43 43 43 43 43 43 44 45 43 44 40 38 37 37 37 38 39 40 40 41 42 43 43 44 45 45 46 47 48 48 49 50 50 51 52 52 53 53 54 56
46 46 45 44 44 44 44 44 44 45 45 47 43 44 43 39 38 38 39 40 40 40 41 42 43 43 44 45 46 46 46 47 48 49 50 51 52 52 53 54 55 55 56 57
45 45 45 45 44 44 44 44 44 45 46 47 44 44 44 41 39 39 40 41 41 42 43 43 43 43 44 45 46 47 47 47 48 49 50 51 52 53 54 55 56 56 57 57
43 43 43 44 44 43 43 43 44 45 46 46 45 44 43 42 41 40 40 41 42 42 43 43 43 44 44 45 45 45 46 48 49 50 51 51 52 53 54 55 56 56 56 56
41 42 42 42 42 43 43 43 43 45 47 47 47 45 43 41 41 41 40 41 41 41 42 43 43 44 44 44 45 45 46 47 48 49 50 51 52 52 54 54 55 55 54 53
41 42 42 42 42 43 43 42 42 43 45 46 47 45 43 41 40 41 41 41 40 41 41 42 42 43 44 44 44 45 46 47 47 49 49 50 50 51 52 53 53 53 51 50
40 42 42 42 42 42 42 43 43 44 46 46 47 46 44 43 41 41 41 41 40 41 41 41 42 43 43 44 45 45 46 46 47 47 48 48 49 50 50 50 49 49 48 48
41 42 42 41 41 41 42 43 43 44 45 46 47 48 45 44 43 43 42 42 41 42 42 42 42 41 42 43 44 44 45 46 46 47 47 47 47 47 47 46 46 46 46 46
41 42 43 43 42 41 42 42 42 43 44 46 47 47 44 44 44 45 44 43 42 41 42 42 42 42 42 42 42 43 44 44 45 46 46 45 45 44 44 43 44 45 45 44
41 42 42 43 43 42 42 41 41 42 43 45 45 44 42 43 44 44 44 43 42 41 41 41 41 41 41 41 41 42 43 43 43 44 44 44 43 42 41 41 43 43 43 43
41 41 41 42 43 43 43 42 41 42 43 44 43 42 41 42 42 42 41 41 40 40 40 40 41 40 40 40 40 41 42 43 43 42 42 41 41 41 41 40 40 40 40 41
41 42 41 41 42 43 44 43 43 42 42 42 42 40 39 40 40 40 39 39 39 39 40 40 40 40 40 41 41 41 41 41 41 41 40 40 41 40 39 39 38 39 39 39
41 41 40 40 40 42 42 41 41 42 41 41 41 39 38 38 38 39 38 38 39 39 40 40 39 39 40 40 40 40 40 40 40 40 40 40 40 40 39 39 39 40 38 37
39 40 41 41 40 43 40 39 39 40 39 39 39 38 38 38 38 38 39 39 39 39 40 41 41 41 40 40 39 39 39 39 39 39 39 40 40 39 38 38 38 38 37 36
36 37 39 40 42 42 40 38 37 38 38 37 37 37 37 38 39 39 39 40 40 40 40 41 41 41 40 39 38 38 38 38 38 37 38 38 38 37 36 35 35 35 35 35
34 35 36 37 38 39 38 37 38 39 39 37 37 36 36 37 38 38 38 39 39 39 39 39 39 38 38 37 37 37 37 37 37 38 38 38 37 36 35 35 35 34 34 33
31 32 33 33 35 36 35 35 36 38 37 37 37 37 36 36 36 36 37 38 37 37 37 37 37 37 37 37 36 36 36 36 37 37 37 37 37 36 35 35 35 34 32 31
29 30 30 31 32 32 31 32 34 35 35 34 35 35 35 34 34 34 35 36 36 36 36 36 36 36 37 37 37 36 36 36 36 37 37 37 37 37 36 35 33 32 31 30
28 28 29 29 30 30 31 32 32 33 33 32 32 32 33 33 33 34 34 34 34 35 35 35 35 35 35 36 35 35 34 35 35 35 35 36 36 35 34 33 31 31 30 29
27 27 28 28 27 28 29 31 31 31 31 31 30 30 31 31 32 32 33 34 34 34 35 34 34 33 33 33 33 33 33 33 33 33 33 33 33 32 31 30 30 29 28 27
25 26 27 27 27 27 27 28 29 29 29 29 30 29 29 29 30 31 31 32 33 33 33 33 32 32 32 31 31 32 32 32 31 31 30 29 29 28 28 28 28 27 26 26
24 26 26 26 26 27 26 27 28 28 29 29 29 29 29 29 29 29 30 30 31 31 31 31 30 30 30 30 30 30 30 30 30 29 28 27 26 26 26 26 26 25 25 24

GEFSCGP_500_meanwind_216.txt.gz
Wind_Speed
41 42 41 39 40 40 40 40 39 39 39 39 39 38 37 36 36 36 35 35 34 34 35 35 35 35 35 36 38 39 40 40 41 41 41 42 43 43 44 45 46 46 47 47
42 43 41 41 41 41 41 41 40 40 40 40 40 39 38 38 37 37 36 36 36 36 37 37 37 37 37 38 38 39 41 42 42 42 43 43 44 44 45 45 46 47 47 47
43 42 42 42 42 42 42 42 41 41 41 42 42 41 39 38 38 38 38 38 37 37 38 38 38 38 39 39 39 40 41 42 43 43 43 43 44 45 46 46 47 47 48 48
45 44 43 43 43 43 42 42 42 42 42 43 43 43 40 39 39 39 39 39 39 38 39 39 39 39 39 40 40 41 41 42 43 43 44 44 45 46 46 47 47 48 48 48
44 44 44 44 43 43 44 43 43 43 44 45 44 45 42 40 39 40 40 39 39 39 39 39 39 40 40 40 41 41 42 43 44 44 45 45 46 47 47 48 49 49 49 49
44 44 44 44 43 44 44 44 44 44 45 46 44 45 44 40 39 40 40 40 40 41 41 41 40 40 41 41 42 42 43 43 44 44 44 45 47 48 48 49 50 50 50 51
44 44 44 43 43 43 43 43 43 44 45 46 44 44 44 41 40 40 40 40 40 40 41 41 41 42 42 43 43 43 43 44 44 45 45 46 48 49 50 50 50 51 52 52
42 42 43 43 43 42 42 42 43 44 45 45 45 44 43 41 40 39 39 39 39 40 40 41 42 42 43 43 43 43 44 44 45 46 47 48 49 50 51 51 51 52 52 53
43 42 42 42 42 42 42 42 41 42 44 45 45 45 44 42 40 39 39 39 39 40 40 41 41 41 42 43 42 43 44 44 45 45 47 48 49 50 50 51 51 52 53 53
41 42 41 41 42 43 42 42 42 42 42 43 45 44 42 40 40 39 39 39 39 39 39 40 40 41 41 41 42 42 43 44 45 46 47 47 48 48 49 50 52 53 54 54
38 40 40 39 40 40 40 41 42 43 44 43 43 43 42 40 39 39 38 37 37 38 39 39 39 40 40 40 40 41 42 43 44 46 47 47 48 48 49 50 52 53 53 53
37 38 39 40 40 39 39 40 40 41 43 43 42 43 41 40 39 39 38 37 37 38 38 38 38 39 39 40 40 40 41 42 44 45 47 48 48 48 49 50 51 51 51 52
37 38 37 38 40 41 40 40 40 40 41 42 42 42 41 40 39 39 39 39 39 39 39 38 38 38 39 39 40 41 41 42 43 45 46 46 46 47 48 49 49 50 50 50
36 38 38 38 38 39 40 40 40 40 41 42 41 41 40 40 40 40 40 40 40 40 40 39 39 39 39 39 39 40 41 42 43 44 44 44 45 46 46 47 47 48 48 48
36 37 38 39 39 38 39 39 40 41 41 42 40 40 40 40 40 41 41 40 39 39 39 40 39 39 39 39 39 40 40 41 41 42 41 42 43 44 45 45 46 46 47 47
35 36 37 37 38 39 39 38 39 39 39 40 40 39 39 40 40 40 39 39 39 39 39 40 40 40 40 39 39 40 40 40 40 40 41 42 42 43 44 44 44 45 45 44
34 35 36 36 36 38 39 38 38 38 38 39 39 38 38 37 38 38 38 38 38 38 38 39 39 40 40 40 40 39 39 39 39 40 40 41 41 42 42 42 43 43 42 42
32 33 35 36 36 37 37 36 37 37 37 38 37 37 37 36 36 36 36 37 37 37 37 38 38 38 40 40 39 39 39 39 39 39 40 40 40 41 40 41 40 40 39 39
31 32 33 33 34 35 34 34 34 34 35 35 36 36 36 36 36 36 36 36 36 36 37 37 37 38 38 39 39 38 38 38 38 38 39 38 39 39 38 38 38 37 37 37
29 30 32 33 33 33 32 32 33 34 34 33 34 35 35 35 35 35 35 35 36 36 36 37 37 37 36 36 36 37 37 36 36 36 37 37 37 37 37 37 36 36 36 36
26 28 29 30 32 32 31 30 31 32 32 32 33 34 35 35 35 34 34 34 35 35 35 35 35 35 35 35 35 35 35 35 34 35 36 36 36 36 36 36 36 35 34 33
25 26 27 28 29 30 30 30 31 31 32 31 32 32 33 33 33 33 33 33 33 33 33 33 33 33 34 34 35 35 34 34 34 34 35 35 35 34 34 35 34 33 33 32
23 24 25 27 27 27 27 28 29 29 29 29 30 30 31 31 31 31 32 32 32 32 32 32 32 33 33 33 34 35 34 34 34 35 34 34 33 33 33 32 32 32 31 30
22 23 23 24 24 25 25 25 26 26 27 28 28 29 30 30 30 31 31 32 32 32 32 32 32 32 32 32 33 33 33 33 33 32 32 32 32 31 31 31 30 29 29 28
22 23 23 23 23 23 24 24 25 25 26 26 27 27 28 28 29 30 30 31 31 31 31 31 31 32 32 32 32 32 31 31 30 30 30 30 30 30 29 29 28 27 27 27
20 21 22 22 22 23 23 24 25 25 25 26 26 26 26 27 28 28 29 30 30 30 30 30 31 31 31 31 31 31 31 30 29 28 28 28 27 28 28 27 27 26 26 26

GEFSCGP_500_meanwind_222.txt.gz
Wind_Speed
43 44 43 42 42 42 43 43 44 44 43 43 42 41 40 40 39 39 38 39 38 38 38 38 37 36 36 36 36 36 37 37 37 38 39 39 39 39 40 40 40 41 41 42
45 45 43 43 43 43 43 44 45 45 44 45 44 43 42 41 40 40 39 39 39 39 39 38 38 37 37 37 37 37 37 38 38 39 40 40 41 41 41 42 42 43 43 44
45 44 44 44 44 44 44 44 44 45 45 46 47 46 44 42 42 41 41 40 40 40 40 39 39 38 38 38 38 38 39 39 40 40 41 41 41 42 43 43 44 44 44 45
45 44 44 44 45 44 44 44 44 45 46 47 47 48 46 44 43 43 42 42 41 41 41 40 40 39 40 40 40 40 41 41 41 41 41 42 42 43 43 44 45 45 45 46
44 44 44 44 44 44 44 44 44 45 46 48 48 49 47 45 44 43 43 42 42 42 42 42 41 41 41 41 41 42 42 42 42 42 43 43 44 44 45 45 46 46 47 47
43 44 44 44 44 44 44 43 43 44 45 48 47 48 49 46 44 43 42 42 42 43 43 42 42 42 42 42 42 43 43 43 43 44 44 45 45 46 46 46 47 47 47 48
43 44 44 44 44 45 44 44 44 45 46 48 46 48 49 46 44 43 42 42 42 42 43 43 43 43 43 43 43 44 44 44 44 45 45 46 46 47 47 48 48 48 48 49
42 44 44 44 44 44 44 44 45 45 46 46 45 47 48 46 44 44 42 42 42 42 42 43 43 44 44 44 44 44 44 44 44 45 45 46 47 48 48 49 50 50 50 50
41 43 43 44 43 44 44 45 44 44 44 45 46 46 46 45 45 44 43 42 42 42 42 42 43 43 44 44 44 44 44 44 44 45 46 47 47 48 49 50 50 50 50 50
40 42 43 44 44 44 44 43 44 45 45 43 44 44 44 45 45 45 43 42 42 42 42 42 43 43 43 43 43 43 43 44 44 45 46 47 48 48 49 49 49 50 51 51
39 41 42 42 43 42 43 44 45 45 46 45 43 43 43 44 44 44 43 42 42 41 41 41 41 42 42 43 43 43 44 44 45 45 46 46 47 47 47 47 48 49 50 50
37 40 41 41 41 41 41 42 43 43 44 45 44 43 42 42 43 44 43 42 41 41 41 41 41 41 41 42 42 43 43 44 45 45 46 47 46 46 46 46 47 47 48 49
35 37 38 39 40 41 40 40 41 42 42 43 43 43 42 42 42 42 42 41 41 40 40 40 40 40 39 40 41 42 42 43 43 44 44 44 44 44 45 45 45 45 47 48
34 36 37 38 38 39 40 39 39 41 42 41 41 41 41 42 42 42 41 40 39 39 40 41 40 39 39 39 40 40 41 41 42 42 43 42 42 43 44 45 45 45 45 46
33 35 35 36 37 38 40 40 39 39 40 40 39 39 39 40 40 40 40 39 39 39 40 40 40 39 39 40 41 41 41 41 41 41 41 42 42 43 43 44 44 44 45 46
32 34 34 35 36 38 38 39 40 39 39 40 40 39 39 39 39 39 39 39 39 39 39 39 39 40 40 40 41 41 41 41 41 41 41 42 42 43 43 43 43 43 44 44
31 32 32 32 33 35 37 37 38 39 39 39 40 38 38 38 38 38 38 37 37 38 38 38 38 39 40 40 40 41 40 40 41 40 41 42 42 42 42 42 42 42 43 43
30 32 33 33 32 34 34 35 36 37 37 38 38 39 39 39 39 39 39 38 38 37 38 38 38 39 40 40 40 40 39 39 40 40 40 41 41 42 42 42 42 41 41 41
29 30 32 34 34 34 34 34 34 35 35 35 36 37 39 39 39 38 38 38 37 38 38 39 39 39 39 40 40 39 39 39 40 39 39 40 40 41 41 41 41 41 41 41
26 27 29 31 32 32 32 32 32 33 34 35 35 36 36 37 37 37 37 36 36 36 37 38 38 39 39 39 39 39 39 39 39 39 39 39 39 40 40 40 40 40 40 40
24 25 26 28 30 31 30 30 31 32 32 33 34 34 35 36 36 35 36 36 36 36 36 37 37 37 37 38 38 39 40 40 39 38 38 38 39 39 39 38 38 38 38 38
24 24 25 26 28 29 29 30 31 31 31 31 32 33 33 34 34 34 34 35 35 35 36 36 36 37 37 37 38 38 38 38 37 37 38 38 39 38 37 37 36 36 35 35
24 25 25 26 27 28 28 29 30 31 31 31 31 31 32 32 34 34 34 35 35 36 37 37 36 36 36 37 37 36 36 36 36 36 37 37 37 36 35 35 33 32 32 33
21 23 24 26 27 27 27 28 29 30 30 30 29 30 31 32 32 33 33 34 35 36 36 36 36 35 34 35 35 35 35 35 35 35 35 35 35 34 33 32 31 31 31 32
20 21 22 24 24 25 26 27 27 27 27 27 28 29 30 30 31 31 32 33 33 34 34 35 35 35 35 34 34 34 34 34 33 33 33 33 33 32 31 31 31 30 31 32
20 21 22 22 23 23 23 24 25 26 27 28 28 29 30 31 31 31 31 31 32 32 32 33 35 35 35 35 34 34 34 33 31 31 31 31 31 30 30 30 30 30 30 30

GEFSCGP_500_meanwind_228.txt.gz
Wind_Speed
45 45 45 43 44 46 46 46 45 45 45 45 45 44 43 43 43 42 42 41 40 39 39 38 37 37 36 36 35 35 35 35 35 35 35 35 35 35 36 36 37 37 38 38
46 45 43 44 45 46 46 46 46 46 46 46 45 45 44 44 44 43 42 41 41 40 39 39 38 37 37 36 36 36 36 37 37 37 37 36 36 37 37 38 38 39 39 40
44 44 44 45 46 46 47 46 46 46 46 47 47 46 45 44 44 44 43 42 41 40 40 40 39 38 37 37 37 37 37 38 38 38 38 38 38 38 38 38 39 40 41 41
44 44 44 44 45 46 46 46 46 46 47 48 47 48 46 45 44 44 43 43 42 42 41 41 40 40 39 38 38 39 39 39 39 39 39 39 39 39 39 40 40 41 41 42
44 44 44 44 43 44 44 44 44 46 47 48 48 49 47 46 45 43 44 44 43 42 42 41 41 40 40 40 39 40 40 40 39 40 40 40 40 40 41 41 41 42 42 43
42 43 44 42 43 44 44 44 43 44 46 48 47 48 48 46 44 43 43 43 43 42 42 41 41 41 41 40 40 40 40 40 40 40 41 41 41 42 42 43 43 43 44 44
41 42 43 42 42 43 44 44 44 45 47 48 46 47 47 44 43 42 42 43 43 43 43 42 42 41 41 41 41 41 41 41 41 42 42 42 43 43 44 44 45 45 45 45
41 41 42 42 42 42 43 44 44 45 46 46 45 47 46 44 42 42 42 42 43 43 43 43 42 42 42 42 42 42 42 42 43 43 43 44 44 45 46 46 46 46 46 46
40 41 41 41 41 41 42 42 42 44 45 45 46 46 45 43 42 42 41 41 42 43 43 43 43 42 42 42 43 43 43 43 44 44 44 45 45 45 46 46 47 47 48 48
39 40 40 41 41 42 41 41 41 42 44 45 45 45 45 43 41 41 40 40 40 41 42 42 42 42 42 43 43 43 43 43 44 44 44 44 44 45 45 46 47 48 48 48
37 39 39 40 41 41 41 41 42 42 44 44 45 44 43 42 42 41 41 40 40 40 40 40 41 41 41 42 42 43 43 43 44 44 44 44 45 45 45 46 46 47 48 49
36 37 37 38 39 40 42 41 41 41 43 44 43 43 41 41 41 40 40 40 40 40 40 40 40 40 41 41 41 42 42 43 43 44 44 45 45 45 45 46 46 47 47 48
34 35 36 37 38 38 40 40 40 40 40 41 41 42 41 40 40 40 39 39 40 40 40 39 39 40 40 40 41 41 42 42 43 43 44 44 45 45 45 45 46 46 46 46
31 34 35 36 36 36 37 38 40 40 40 39 39 39 40 40 40 40 40 40 40 40 40 39 39 39 40 40 40 41 41 41 42 42 43 43 44 44 44 45 44 45 45 45
30 32 33 33 34 34 34 36 37 40 39 38 37 37 37 38 39 39 40 41 41 40 39 39 39 40 40 40 40 40 40 41 41 42 43 43 44 44 44 43 44 44 44 43
29 30 30 31 32 33 33 33 35 36 38 37 37 36 35 36 37 38 39 39 40 40 40 40 40 40 40 40 40 39 40 40 40 41 42 42 42 42 42 43 43 43 43 42
26 28 29 30 31 33 34 32 33 34 35 35 36 35 34 35 35 36 37 38 38 38 38 39 39 40 40 40 40 40 40 39 39 40 41 41 41 41 41 42 43 42 42 42
25 26 28 28 30 32 32 33 33 33 33 35 36 35 34 35 35 36 36 37 37 37 37 38 38 38 39 39 40 40 40 40 39 40 40 40 40 40 42 42 42 43 42 42
23 23 24 26 27 29 30 31 32 32 31 33 34 35 34 34 35 35 35 36 37 37 37 37 38 38 38 38 39 39 40 40 40 40 40 40 40 41 42 42 42 42 42 42
21 22 23 25 26 27 27 28 29 31 31 30 31 33 33 33 33 34 35 36 36 37 38 38 37 37 37 37 38 39 39 39 40 40 40 40 40 40 41 41 41 41 41 41
20 22 23 23 25 26 26 27 27 29 29 29 31 31 32 33 34 34 34 35 36 37 38 38 38 38 37 37 37 38 38 38 39 39 39 39 39 39 39 39 39 40 40 41
19 20 21 23 24 24 25 27 28 28 28 29 30 31 31 31 32 33 33 34 35 36 36 37 37 37 37 37 37 37 37 37 38 38 38 39 39 38 38 38 39 39 39 39
19 20 21 22 22 22 23 25 27 28 28 28 29 30 30 30 30 31 32 33 34 35 36 36 36 36 36 36 37 37 37 37 37 38 38 38 38 38 38 38 37 37 37 37
18 19 20 21 21 22 22 23 24 25 26 27 28 29 30 30 30 31 32 32 33 34 34 34 34 35 35 35 35 36 36 36 37 37 37 37 37 36 36 36 36 36 36 36
17 19 20 20 20 21 21 22 23 24 25 27 27 28 29 29 30 31 31 31 32 32 33 33 34 34 35 35 35 35 36 36 36 36 35 35 35 35 35 35 35 35 35 34
17 17 18 19 20 21 21 22 22 23 24 25 27 28 28 29 30 30 31 31 31 32 32 33 33 34 34 35 35 35 35 35 35 34 34 34 34 34 34 34 34 34 33 33

GEFSCGP_500_meanwind_234.txt.gz
Wind_Speed
47 49 49 48 49 49 49 49 49 48 48 48 48 46 45 44 44 44 44 43 41 40 41 41 40 40 40 39 39 38 38 38 37 37 36 36 35 35 34 34 34 34 35 35
47 49 47 47 48 49 49 50 50 50 49 49 49 48 46 46 45 45 44 43 42 41 41 41 41 40 40 40 39 39 39 38 38 38 38 38 37 37 37 37 37 37 37 37
47 46 48 48 48 48 48 48 48 49 49 50 50 50 48 47 46 45 45 44 43 42 42 42 42 41 41 40 40 40 40 40 40 39 39 39 39 39 39 39 39 39 39 39
47 47 48 48 48 48 48 47 47 48 49 50 50 50 49 48 47 46 45 44 44 43 43 43 42 42 41 41 41 41 41 41 41 41 40 40 40 40 40 40 40 40 40 40
46 47 47 48 47 47 47 46 46 47 49 50 51 51 49 48 47 45 45 45 44 44 43 43 43 42 42 42 42 42 42 42 42 41 41 41 41 41 41 40 41 41 41 41
44 45 46 46 45 46 46 46 46 47 48 51 50 51 50 48 47 46 46 45 45 44 44 43 43 43 43 43 44 43 43 42 42 41 42 41 41 41 41 41 41 42 42 42
42 44 45 46 45 46 46 46 46 47 49 50 49 51 50 48 48 47 47 46 46 45 45 44 43 44 44 44 44 43 43 43 42 42 42 42 42 42 42 42 42 43 43 43
41 42 43 44 45 44 44 45 45 46 47 47 47 49 49 48 47 47 47 46 46 46 45 45 44 44 44 44 44 44 44 43 43 43 43 43 43 43 44 44 44 44 44 44
39 40 42 42 42 43 43 43 43 43 46 46 46 46 46 46 45 45 46 46 46 46 45 45 44 44 45 45 45 45 45 45 44 44 45 44 44 45 45 45 44 44 45 45
37 38 40 41 41 42 42 41 42 43 44 46 46 45 44 43 42 43 43 44 45 45 46 45 45 44 45 45 45 45 45 45 45 45 45 46 45 46 46 45 46 46 46 47
35 37 38 39 40 40 41 41 42 42 43 44 45 44 42 42 41 41 41 42 42 43 44 44 45 44 45 45 45 45 45 45 46 46 46 46 46 46 46 46 46 47 47 48
33 35 36 38 39 40 40 40 40 41 41 42 42 43 41 40 40 40 40 41 41 41 42 43 44 44 44 45 45 45 45 46 46 46 46 46 46 46 46 47 47 48 48 47
31 33 34 36 38 39 40 40 41 41 42 41 41 41 39 39 39 39 40 40 41 41 41 42 43 44 44 44 45 45 45 45 46 46 46 46 46 46 46 47 47 47 47 46
30 32 33 35 36 38 38 39 40 41 42 42 41 40 38 38 39 39 40 40 40 41 42 42 43 44 44 44 44 44 45 45 45 46 46 45 45 46 46 46 47 47 46 45
28 29 31 33 34 36 37 37 38 39 40 41 40 40 39 39 39 39 39 39 39 40 41 42 43 43 44 44 44 44 44 44 45 45 45 45 45 45 45 46 46 46 45 45
26 28 30 31 33 35 36 36 37 38 38 39 40 40 39 38 38 39 39 38 39 40 41 42 42 43 44 44 45 45 45 45 44 44 44 44 45 45 44 44 45 45 45 45
24 26 28 29 31 33 35 35 36 36 36 37 38 38 39 38 38 38 39 38 38 39 40 41 42 43 43 44 44 44 45 45 44 44 43 43 43 43 43 43 43 44 44 45
24 25 26 27 29 32 32 33 34 34 34 35 36 36 37 37 37 38 39 39 38 38 39 40 41 41 42 43 43 44 44 43 43 43 42 42 42 42 42 42 42 42 43 44
23 24 25 26 28 30 30 31 32 33 33 33 34 35 36 37 37 37 38 39 38 37 37 38 40 41 41 42 43 43 43 43 43 42 42 43 43 43 43 42 42 42 43 43
22 23 25 26 27 27 27 28 30 31 31 31 32 32 34 35 36 35 36 37 37 36 36 36 37 39 40 41 41 42 42 42 42 43 43 43 44 43 43 43 43 43 43 43
20 21 23 24 25 25 25 26 28 29 29 29 30 30 31 32 34 35 35 35 36 36 36 37 37 37 38 39 40 41 41 42 42 42 42 43 43 43 43 43 43 43 42 42
19 20 21 22 23 23 24 24 26 26 27 28 28 29 30 31 32 34 35 36 35 35 36 36 36 37 37 37 38 39 39 40 41 41 42 42 43 43 43 43 42 41 41 41
19 20 20 21 21 21 22 23 25 25 26 27 27 28 29 30 32 33 34 35 36 36 35 35 36 36 37 37 37 38 38 39 39 40 40 41 41 41 41 40 40 40 40 40
17 18 20 20 21 22 22 23 23 24 24 25 26 26 27 29 30 31 33 35 36 36 36 35 35 35 35 36 37 38 38 39 39 39 39 39 39 39 39 39 39 39 40 40
17 18 19 20 20 22 22 23 23 23 23 24 24 25 26 27 28 29 31 32 33 34 35 35 36 36 36 36 37 37 38 38 38 38 38 38 38 38 38 38 38 39 39 39
18 18 19 19 19 20 22 23 23 24 25 25 25 25 26 27 28 29 30 31 32 33 33 34 35 35 35 36 36 37 38 38 38 38 37 37 37 38 38 38 38 38 37 37

GEFSCGP_500_meanwind_240.txt.gz
Wind_Speed
48 48 49 49 49 50 50 50 50 50 49 49 49 49 48 48 47 46 46 46 45 45 44 44 43 43 42 42 41 41 40 40 39 39 38 38 37 37 36 36 36 35 35 35
48 48 47 46 47 48 49 50 50 49 49 49 49 49 49 49 48 47 46 46 46 46 45 44 44 43 43 42 41 41 41 41 40 40 40 39 39 38 38 37 36 36 36 35
47 45 45 46 47 48 48 49 48 48 48 50 50 50 49 49 49 49 48 47 46 45 45 44 44 44 43 42 42 42 41 41 41 41 40 40 40 39 39 38 37 37 36 36
44 44 45 44 45 46 46 47 47 47 48 49 50 50 50 49 49 49 48 47 46 46 45 44 44 44 43 43 43 42 42 41 41 41 41 41 40 40 40 39 39 38 38 38
43 43 43 43 43 43 43 44 45 46 47 48 49 50 50 49 49 48 47 47 46 46 46 45 45 44 44 44 44 43 43 42 42 42 42 42 41 41 40 40 40 40 40 40
42 42 42 42 41 42 42 42 43 44 45 47 48 48 49 49 48 47 47 46 46 46 46 45 45 44 44 44 44 44 43 43 43 43 43 42 42 41 41 41 41 42 42 42
41 40 41 41 41 42 42 42 42 43 45 47 47 48 48 47 46 46 46 46 45 45 45 45 45 44 44 44 44 44 44 44 43 43 43 43 42 42 42 42 43 43 43 43
39 39 40 40 41 42 42 41 42 43 45 45 45 47 47 45 44 44 45 46 46 46 45 45 45 45 44 44 44 44 44 44 44 44 44 43 43 43 43 43 43 43 43 43
36 37 38 39 39 40 41 41 41 42 44 44 45 46 45 44 43 43 44 45 45 45 45 45 45 45 45 45 45 45 45 44 44 44 44 44 44 44 44 44 44 43 43 43
33 35 36 38 38 39 40 40 40 41 42 43 44 45 45 44 43 43 43 44 44 45 45 45 45 45 45 45 46 46 45 45 45 45 45 45 45 45 45 44 44 44 44 44
31 34 35 36 38 38 39 39 40 40 41 41 42 44 44 43 43 43 43 43 44 44 44 45 45 45 45 46 46 46 46 46 46 46 46 45 45 45 45 45 45 45 45 45
29 31 33 34 35 37 38 38 39 39 39 40 41 42 42 41 41 41 41 42 43 43 43 44 45 45 45 45 46 46 46 46 46 46 46 46 45 45 45 45 45 46 46 46
26 29 31 32 35 36 37 38 38 38 38 39 40 41 40 40 40 39 39 40 41 42 42 43 44 45 45 45 45 45 46 46 47 47 47 46 46 46 46 46 46 46 46 46
25 27 28 31 33 34 35 36 38 38 38 38 38 39 38 38 38 39 39 39 40 40 41 42 43 44 44 45 45 45 46 46 47 46 46 46 46 47 47 47 47 47 46 46
23 23 25 28 29 31 33 34 37 38 37 37 36 36 36 36 37 37 38 38 39 40 40 40 41 43 44 45 45 45 46 47 47 47 47 47 47 47 47 47 47 47 47 47
21 22 23 25 27 29 30 32 34 36 37 37 36 35 34 35 36 36 37 37 39 39 39 40 41 42 43 44 45 46 46 47 47 47 47 47 47 47 47 47 47 47 46 46
20 21 22 24 25 28 30 31 33 34 35 36 36 35 35 35 34 35 36 37 38 39 39 39 41 42 43 44 44 45 46 47 47 47 47 47 47 47 46 47 47 47 46 46
19 20 21 22 24 26 27 30 31 32 33 35 36 37 37 37 36 35 35 36 37 38 38 39 40 41 42 43 44 44 44 45 46 47 47 47 47 46 46 46 46 46 46 46
17 18 20 21 22 23 25 27 30 31 31 33 34 36 37 37 37 36 35 36 37 37 38 39 39 40 41 42 43 44 44 44 45 46 46 46 46 46 46 46 46 46 45 46
18 18 19 20 21 22 23 24 26 29 30 31 31 32 34 35 35 35 36 36 36 37 38 38 39 39 40 41 42 42 43 43 44 45 45 46 46 46 46 46 45 45 45 45
17 18 19 19 20 21 22 22 24 26 27 29 29 30 31 33 33 34 35 36 36 37 37 37 38 38 39 40 40 41 41 42 43 43 44 45 45 45 45 45 45 45 45 44
17 18 18 19 20 21 21 21 22 23 24 26 27 29 30 31 32 33 34 35 35 36 36 37 37 36 37 38 38 39 40 40 40 41 41 42 43 43 44 44 44 44 44 44
16 17 17 18 19 20 21 21 21 22 23 23 25 26 27 28 29 30 32 33 33 34 34 35 35 35 36 37 37 38 38 39 39 40 40 40 41 41 42 42 42 42 42 42
14 15 16 16 17 19 20 21 22 22 22 23 23 25 26 27 27 28 29 30 32 32 32 33 34 34 36 36 36 37 37 37 37 38 39 39 40 40 40 40 40 40 40 41
13 14 15 15 16 17 19 20 21 22 23 24 23 24 25 25 26 27 27 28 30 30 31 32 33 33 34 35 35 35 36 36 37 37 37 38 38 38 38 38 38 38 38 39
13 14 15 15 16 16 17 19 20 21 22 23 24 25 26 25 25 26 27 28 28 29 30 30 31 32 32 33 34 34 35 35 36 37 37 37 37 38 38 37 37 37 37 37

GEFSCGP_500_meanwind_246.txt.gz
Wind_Speed
45 47 50 50 50 49 49 49 49 49 50 50 50 49 49 48 47 48 48 47 47 47 46 46 45 45 45 44 44 43 43 42 41 41 40 39 38 38 37 36 36 35 35 35
44 45 46 46 47 48 49 49 50 49 51 50 50 50 50 48 47 47 48 47 46 46 46 46 46 46 45 45 45 45 44 44 43 42 41 41 40 39 38 38 37 37 37 37
42 42 44 45 45 46 48 48 49 49 48 50 50 50 50 49 48 48 48 48 48 47 46 46 46 46 46 46 46 45 45 44 44 43 42 41 41 40 40 39 39 38 37 37
40 41 43 44 45 45 46 46 47 48 48 48 50 50 49 49 48 48 48 48 48 47 47 46 46 46 46 46 46 46 45 45 44 43 42 42 42 41 40 40 40 39 38 38
39 40 42 44 45 45 45 44 45 46 47 48 49 49 48 49 48 48 48 48 48 48 48 47 46 46 47 47 47 46 46 45 44 44 43 43 42 42 41 41 40 40 40 39
37 38 40 42 43 43 44 43 43 43 45 48 48 48 49 48 48 47 47 48 48 48 48 48 48 47 47 46 45 46 45 45 44 44 44 43 42 42 41 41 40 40 40 40
34 37 38 39 41 42 42 42 41 42 45 48 47 47 49 47 46 46 47 47 48 48 48 48 48 48 47 47 46 45 45 45 45 44 44 43 43 42 42 42 41 41 41 41
32 35 36 38 40 41 41 41 42 42 43 46 46 47 48 47 46 46 46 46 47 47 47 47 46 46 46 46 46 46 45 45 45 45 44 44 44 44 43 43 42 42 42 41
32 34 36 36 38 40 40 40 41 41 41 42 44 46 47 46 46 46 45 45 46 46 46 46 46 46 46 46 46 46 46 46 45 45 45 44 44 44 44 44 44 43 42 42
30 32 35 35 37 39 38 37 39 41 41 40 42 43 45 45 45 44 44 44 45 46 46 46 46 46 46 46 46 46 46 46 46 46 45 45 45 45 45 45 44 44 43 43
28 31 33 35 36 38 38 38 39 40 40 40 40 42 43 42 43 43 43 43 44 45 45 45 46 46 45 46 46 46 47 46 46 46 46 45 46 46 46 45 45 44 45 45
26 29 31 34 35 37 38 39 39 39 39 39 40 40 40 41 42 43 43 43 43 44 44 45 45 45 46 46 45 46 46 46 46 46 46 46 46 46 46 46 46 46 45 46
23 27 29 31 34 36 37 39 38 38 39 39 39 39 40 40 41 42 42 42 42 43 44 44 45 45 45 45 46 45 46 46 46 46 46 47 47 47 47 47 46 46 46 46
21 24 28 30 30 33 36 37 37 37 37 38 38 38 39 39 41 42 42 42 42 42 43 43 44 44 45 45 45 46 46 46 46 47 47 47 47 47 47 47 46 47 47 47
20 23 26 27 28 31 33 35 37 38 37 37 36 37 39 39 40 40 41 42 43 43 43 43 44 44 44 44 45 46 46 46 46 47 47 47 47 48 47 47 47 47 47 46
20 21 23 24 26 27 30 33 35 36 37 37 36 35 36 38 38 39 41 41 42 42 43 43 43 43 43 44 44 45 46 46 46 46 46 47 47 48 48 48 48 48 47 47
19 20 22 23 25 26 29 30 33 34 35 35 35 34 34 36 37 38 39 41 42 42 42 42 42 43 43 44 44 45 45 46 46 46 46 46 47 48 48 48 48 48 48 48
17 19 21 22 22 25 26 27 29 31 32 33 34 34 34 35 36 36 37 39 41 41 41 41 41 42 43 43 44 45 45 46 46 47 47 47 47 48 48 48 48 48 48 48
18 18 20 21 23 24 25 26 27 28 29 30 31 33 34 34 34 35 36 37 38 39 41 41 41 41 42 42 43 44 45 46 46 47 47 47 47 47 48 48 48 48 48 48
16 18 20 21 23 24 24 24 26 27 29 29 30 31 32 33 33 33 35 36 37 38 39 40 41 41 42 42 43 43 44 44 45 46 46 47 47 47 47 47 47 48 48 47
17 18 19 20 22 22 22 23 24 26 27 28 30 31 32 32 33 33 34 35 36 37 38 39 39 40 41 41 42 42 43 43 44 45 45 46 46 47 47 47 47 47 47 46
17 18 19 20 21 21 21 23 24 25 26 27 28 29 30 31 32 33 33 34 35 36 36 38 38 38 39 40 41 41 41 41 42 43 43 44 44 45 45 44 44 44 45 45
17 18 19 20 20 20 21 23 24 24 25 26 28 29 29 30 31 32 32 32 33 34 34 35 36 37 37 38 39 39 39 40 40 41 41 42 42 43 43 43 42 42 42 43
17 18 19 19 20 20 21 22 22 23 24 25 26 28 28 29 29 29 30 31 32 32 32 33 33 34 35 36 37 38 38 38 39 40 41 41 41 41 42 42 42 41 41 41
17 18 19 19 20 21 21 22 23 23 24 25 25 26 27 27 27 28 29 30 30 31 31 32 33 33 34 35 35 36 37 37 38 39 39 40 40 41 41 41 40 40 40 39
17 18 18 18 19 20 20 21 21 22 23 24 24 24 26 26 27 27 28 29 29 30 30 31 31 32 33 34 34 34 35 35 36 36 37 38 38 38 38 38 38 38 38 38

GEFSCGP_500_meanwind_252.txt.gz
Wind_Speed
40 43 44 44 46 47 49 51 52 51 51 51 51 50 49 49 48 46 45 45 45 44 43 43 43 43 42 42 41 41 41 41 40 41 40 39 38 38 38 37 36 36 35 34
40 41 40 41 44 46 48 50 51 51 50 50 51 51 51 50 49 47 46 45 45 45 44 44 44 43 43 42 42 42 42 42 41 41 41 41 40 39 39 38 38 37 36 36
38 38 38 41 43 44 47 49 49 49 50 50 50 50 51 51 51 49 48 47 45 45 45 44 43 43 43 42 42 42 42 42 42 42 42 42 42 41 40 39 38 38 37 36
35 36 37 39 41 41 43 45 46 47 48 49 50 51 50 50 50 49 48 47 46 45 44 44 44 43 43 43 43 43 43 42 42 42 43 42 42 42 41 41 40 39 38 37
33 34 36 39 39 39 39 41 43 44 46 47 48 49 49 49 49 48 47 46 45 45 44 43 43 43 43 43 43 43 43 43 43 42 42 42 42 42 42 41 41 41 40 40
30 31 34 35 36 37 37 38 40 41 43 47 48 48 49 49 48 47 46 45 45 44 43 43 44 44 44 43 43 43 43 43 42 42 42 41 42 42 42 42 42 42 41 41
28 29 32 33 35 37 37 38 38 40 42 45 46 48 48 47 47 46 44 44 44 45 44 43 43 44 44 44 44 43 43 43 42 43 42 42 42 42 43 43 43 43 42 41
27 28 30 33 34 35 36 37 40 42 44 44 44 47 46 45 45 45 44 44 44 44 44 43 43 43 44 44 44 44 44 43 43 43 43 43 43 42 43 43 43 43 43 43
24 26 28 30 33 33 35 37 38 39 42 42 44 45 45 43 43 43 43 44 44 44 44 44 44 44 44 45 45 45 45 44 44 44 43 43 43 43 43 43 43 43 44 44
22 24 27 28 30 32 34 35 37 38 39 41 41 42 43 41 41 41 41 42 43 43 43 43 43 43 44 44 45 45 45 45 45 45 45 45 44 44 44 43 44 44 44 44
21 22 25 28 30 31 32 35 36 38 38 39 40 40 39 38 39 39 40 41 42 43 43 43 43 43 44 44 45 45 46 45 46 46 46 45 45 44 44 44 44 45 45 44
19 21 23 26 28 29 31 33 35 37 38 38 38 38 37 38 38 39 39 40 41 42 43 43 43 43 44 44 45 46 46 45 45 46 46 46 45 45 45 45 45 45 45 45
17 20 21 24 26 28 30 32 34 35 36 36 37 37 36 37 38 39 40 40 41 41 42 42 42 43 43 44 45 46 46 46 45 45 45 46 45 45 45 45 45 45 45 45
17 19 21 23 25 26 28 31 34 36 36 36 36 36 36 37 37 38 40 41 41 41 41 42 42 43 43 44 45 46 46 46 45 45 45 45 45 45 45 46 46 45 45 45
14 18 19 21 23 24 26 28 31 33 34 35 34 35 36 38 39 40 40 40 41 41 41 41 42 42 43 44 44 45 46 46 46 46 46 46 46 46 46 47 46 45 45 45
13 16 17 18 21 23 24 26 28 30 31 32 33 33 34 36 38 39 39 39 40 40 40 41 41 41 42 43 44 44 45 45 45 45 45 46 46 46 46 46 46 45 45 45
12 14 16 18 19 21 23 24 27 29 30 32 31 31 32 33 34 36 38 39 39 40 40 41 41 41 42 43 43 44 44 45 46 45 45 45 46 46 47 46 46 45 45 45
12 13 14 16 17 20 22 23 25 27 29 30 31 30 31 32 33 34 36 37 38 39 40 41 41 42 42 43 43 44 45 45 45 45 46 45 45 45 46 46 46 46 46 46
13 13 14 15 17 20 20 22 24 25 26 28 29 30 30 31 32 34 35 36 37 38 39 40 40 41 42 43 43 44 44 45 45 45 45 46 45 45 45 45 45 46 46 47
14 14 15 16 17 18 19 20 22 25 26 26 26 27 28 29 30 31 33 34 35 37 38 39 40 40 41 42 43 43 44 44 45 45 45 46 46 46 46 45 45 46 46 46
15 16 16 17 19 19 19 20 22 24 25 26 26 26 27 27 27 28 30 32 34 35 36 37 38 39 40 41 42 43 43 44 45 45 45 45 45 46 45 45 45 46 46 46
15 17 18 19 20 20 20 21 22 22 23 24 25 26 26 26 27 28 28 29 31 32 34 35 36 38 39 40 41 41 41 42 43 44 44 44 44 44 44 44 44 44 45 45
15 17 18 19 20 21 21 22 22 23 23 23 24 26 26 26 27 27 28 29 30 31 32 33 34 35 36 38 39 40 41 41 42 43 43 43 43 43 43 43 43 44 43 43
17 18 19 19 20 20 20 21 22 22 23 23 24 25 26 26 26 27 27 28 29 30 31 32 32 33 34 35 36 37 39 40 41 41 42 42 42 42 42 42 42 42 41 41
18 19 20 20 20 21 21 22 23 24 24 24 24 25 26 26 27 27 28 28 28 28 29 30 31 32 33 34 34 35 36 37 38 38 39 40 40 41 40 40 40 40 39 39
18 19 19 19 20 21 21 22 23 23 24 24 25 26 27 27 27 27 28 28 28 28 28 29 29 30 31 32 32 33 34 34 35 36 36 36 37 37 37 38 38 38 38 38

GEFSCGP_500_meanwind_258.txt.gz
Wind_Speed
32 35 38 40 42 43 45 48 48 49 50 50 50 51 51 51 51 50 49 48 47 46 44 44 43 42 41 41 41 41 41 40 40 39 38 37 38 38 37 37 36 36 36 36
30 32 35 37 41 41 43 45 46 47 48 50 51 51 51 52 51 50 48 47 47 48 46 45 45 45 44 43 42 42 42 42 41 40 40 39 39 39 38 38 38 38 38 38
29 29 31 35 38 40 41 43 44 45 46 48 51 52 51 52 52 51 50 48 47 48 47 46 46 45 45 44 43 42 42 42 42 42 42 41 41 41 40 39 40 40 40 39
28 27 29 33 35 37 39 41 42 43 44 47 49 52 51 51 52 52 50 49 47 48 48 48 47 46 45 44 44 44 43 43 43 43 43 43 42 42 41 41 42 42 41 41
26 26 27 30 32 35 35 36 38 40 42 44 47 50 50 50 51 51 51 50 48 47 48 48 47 46 46 46 45 45 45 45 44 44 43 44 43 43 43 43 43 43 43 43
24 25 26 27 30 33 34 33 35 38 40 43 45 47 49 48 48 48 49 49 48 47 47 47 47 46 46 46 46 46 46 45 45 45 44 44 44 44 44 44 43 43 43 43
21 23 25 26 28 32 33 33 33 35 38 41 41 44 46 45 45 46 46 47 47 46 47 47 45 45 45 45 45 46 46 46 46 46 45 45 45 45 44 44 44 43 43 43
19 21 24 27 28 29 31 33 34 34 36 38 39 42 43 42 43 44 45 46 46 45 46 46 46 45 45 45 45 45 45 45 45 46 45 45 45 46 45 45 44 44 43 42
19 20 23 25 26 27 28 31 34 34 34 36 38 39 41 41 41 42 44 46 45 44 44 45 46 46 45 45 46 46 45 45 45 45 45 46 46 46 46 45 45 45 45 43
17 20 22 23 24 26 27 29 31 34 34 35 37 37 38 38 39 41 43 44 45 44 44 44 45 45 46 46 46 46 46 46 47 47 46 46 46 46 47 46 46 46 45 45
15 19 22 23 22 24 26 29 31 32 34 34 35 36 36 36 37 39 41 43 44 45 45 45 46 46 47 47 47 46 47 47 47 46 46 45 46 46 46 46 46 46 46 46
15 18 21 23 22 22 24 27 29 31 33 33 34 34 35 36 36 37 39 41 43 45 46 46 47 47 47 47 48 48 48 47 47 47 46 46 46 46 46 46 46 46 46 46
15 18 20 23 24 23 23 25 27 29 32 33 33 32 32 35 36 37 38 40 41 43 45 46 47 47 47 47 48 48 48 48 48 48 48 47 47 47 47 47 47 47 46 46
16 17 20 22 24 25 24 24 24 26 28 30 31 31 31 33 35 36 37 39 40 41 42 44 46 47 47 48 47 47 47 48 48 48 48 48 48 48 49 49 49 49 48 48
16 17 19 21 22 24 25 24 24 25 27 28 28 28 28 30 32 34 35 37 39 40 42 43 45 46 47 47 48 47 47 48 48 49 49 49 49 49 49 50 50 50 50 49
15 18 19 20 22 24 25 24 24 25 26 27 27 27 27 28 31 32 33 35 37 38 39 41 42 44 45 46 47 47 47 47 47 48 48 48 49 49 49 50 50 50 49 49
15 16 18 20 22 24 25 25 26 27 26 27 28 27 28 27 28 30 31 33 35 36 37 38 40 41 43 44 45 46 47 47 46 46 47 47 47 48 48 49 49 49 49 49
16 17 18 20 22 25 25 26 27 28 28 28 28 28 28 29 29 30 31 31 32 33 35 37 39 40 41 42 43 44 45 46 46 47 47 47 47 47 47 47 47 48 48 48
16 18 19 20 22 24 25 26 27 28 28 29 29 29 30 30 30 31 32 32 32 33 33 35 37 38 40 41 42 42 43 44 44 45 46 46 46 46 46 46 45 46 46 46
16 18 20 21 23 24 24 24 26 27 27 27 28 29 29 30 30 30 32 32 33 34 34 35 36 37 38 40 41 42 43 43 43 44 45 45 46 46 46 46 45 45 45 46
19 19 20 21 22 23 23 24 25 26 25 26 27 29 29 29 29 29 30 32 33 34 34 35 36 36 38 39 40 40 41 42 43 43 43 44 44 44 45 44 45 45 45 45
20 20 20 21 21 21 22 24 25 25 26 26 27 27 28 29 29 29 30 31 33 34 35 35 36 36 37 38 39 39 40 41 42 42 43 43 44 44 44 44 44 44 44 44
20 21 21 22 22 22 23 23 24 26 26 26 27 27 28 28 29 29 29 30 31 32 34 35 35 35 36 37 38 39 39 39 40 41 41 42 43 43 43 44 44 44 43 43
21 21 21 22 22 23 23 23 24 25 26 26 27 28 28 29 29 30 30 31 31 32 33 34 34 35 35 36 36 37 37 38 38 39 40 41 41 42 42 42 42 42 42 42
22 22 23 23 22 22 23 23 24 24 25 26 26 27 27 28 29 30 31 31 32 32 32 33 34 35 35 35 35 35 35 36 37 38 38 39 39 39 39 39 39 39 39 40
21 22 22 22 22 22 23 23 24 24 25 26 26 26 26 27 27 28 30 31 32 32 32 32 33 34 34 34 35 34 34 34 35 35 36 37 37 37 37 37 37 37 38 38

GEFSCGP_500_meanwind_264.txt.gz
Wind_Speed
24 26 29 33 35 36 38 40 41 42 43 44 47 49 49 49 48 48 48 49 49 48 47 47 45 44 44 43 42 42 42 41 41 40 39 39 39 38 38 38 37 37 37 36
22 24 24 28 33 34 37 38 38 40 40 42 44 47 47 48 48 47 47 47 48 47 47 47 46 45 44 44 43 43 42 43 42 42 41 40 41 40 40 39 39 38 37 37
20 21 23 26 30 32 33 34 35 37 38 39 40 43 45 46 46 46 46 47 47 47 47 46 45 44 44 44 44 44 44 44 44 43 43 43 42 42 42 41 40 40 40 39
18 20 21 24 28 29 30 31 32 34 36 37 39 41 44 44 45 45 45 45 46 46 46 46 45 44 44 45 45 45 45 44 45 45 45 45 44 43 43 42 42 42 42 41
15 19 20 22 25 27 29 30 31 31 32 34 37 39 41 42 43 44 44 45 45 45 45 46 46 46 45 45 45 45 45 46 45 45 45 46 46 45 45 44 44 43 43 42
14 17 19 20 22 24 26 27 29 29 30 33 34 38 40 40 40 42 43 45 46 46 47 47 47 47 46 46 46 46 46 46 46 46 46 46 46 45 45 45 46 46 45 44
13 15 17 19 21 23 25 26 26 28 30 32 33 35 38 39 38 39 42 44 45 46 47 47 47 47 46 45 46 46 46 46 45 45 45 46 47 47 46 46 46 46 46 45
13 14 15 18 21 22 24 25 26 28 30 31 32 34 35 36 37 37 40 43 45 45 46 47 47 46 46 46 46 46 46 46 47 46 46 46 47 47 47 47 46 46 46 46
12 14 14 16 19 21 23 24 26 27 28 30 32 33 35 34 35 37 38 40 42 44 46 47 47 47 47 46 45 45 46 46 47 46 46 46 47 48 48 48 47 47 47 46
10 13 16 16 18 20 23 23 24 26 27 28 30 33 33 34 35 37 38 40 41 43 44 46 46 47 48 47 46 46 46 46 46 47 47 46 46 47 47 47 47 46 47 47
8 13 16 17 18 19 21 23 24 26 27 28 30 32 31 32 33 34 37 38 40 41 42 44 45 47 47 47 47 46 47 47 46 45 46 46 46 46 44 45 45 45 45 46
8 11 15 16 18 20 21 21 23 23 24 26 29 30 30 32 33 34 35 38 39 40 41 42 43 45 46 46 46 47 46 46 47 47 46 46 46 46 45 45 45 46 46 46
8 11 13 15 17 20 21 22 22 23 23 23 24 26 28 30 32 33 35 37 38 38 39 40 42 42 44 46 46 46 47 46 47 47 47 46 46 46 46 46 46 46 47 46
10 12 13 16 17 19 21 22 23 25 25 24 24 25 26 27 29 30 33 35 36 36 37 38 39 40 41 43 44 45 45 45 46 46 47 47 47 47 47 47 47 47 47 47
12 12 14 16 17 18 20 20 22 24 25 25 25 25 25 25 27 28 30 32 33 35 36 37 38 40 42 43 43 44 44 44 45 45 46 46 46 47 47 47 47 47 48 48
14 14 14 16 18 19 20 20 21 23 25 25 26 26 27 27 27 27 29 30 31 32 33 35 36 38 39 41 42 43 44 44 44 44 44 44 44 45 46 47 47 48 48 48
15 15 16 17 18 20 21 22 24 24 24 25 25 25 27 28 29 29 29 30 31 32 33 33 35 36 39 40 41 42 43 43 43 43 43 43 43 43 44 45 46 46 47 48
15 16 18 19 19 21 21 22 23 25 25 26 27 26 27 27 28 29 30 30 31 32 33 34 35 35 37 39 40 41 42 42 43 43 43 43 44 44 44 45 45 46 47 47
16 17 18 19 21 20 20 22 23 24 25 26 26 27 27 28 29 29 30 30 31 32 34 35 35 35 36 37 38 39 40 41 42 43 43 43 44 44 44 44 45 45 45 45
18 19 19 20 21 20 19 20 22 23 24 24 25 27 28 30 30 29 31 31 31 32 32 33 34 34 35 36 37 37 38 39 40 42 43 43 44 44 44 44 44 44 45 45
19 20 20 20 21 21 21 22 22 24 25 26 26 27 28 29 29 29 30 30 30 31 31 32 32 33 34 35 36 37 38 39 40 40 41 42 43 43 43 43 44 44 44 44
20 20 20 20 21 21 22 23 24 24 25 26 27 27 28 29 29 29 29 29 30 31 31 32 33 33 34 35 36 37 37 38 39 40 40 40 41 41 42 42 42 42 43 43
21 21 20 20 20 21 22 24 25 26 27 26 25 27 28 29 29 29 29 30 30 31 32 32 33 34 35 35 36 36 37 38 39 39 39 39 40 40 40 40 40 41 41 42
21 20 20 20 20 20 21 22 24 25 25 26 26 26 27 27 28 27 27 28 29 31 31 32 32 32 33 35 36 36 36 36 38 38 39 39 39 40 40 40 40 40 40 40
19 20 20 20 20 21 22 23 24 25 25 26 26 26 26 26 27 27 26 27 28 29 30 30 31 32 32 32 33 33 34 34 35 36 37 38 38 39 39 39 38 38 38 38
20 20 21 21 22 23 24 25 25 26 26 26 26 26 27 26 27 27 27 27 27 28 29 29 30 31 30 30 30 31 32 33 33 33 35 36 37 37 37 37 36 36 36 36

GEFSCGP_500_meanwind_270.txt.gz
Wind_Speed
19 22 26 29 31 31 33 35 35 34 36 38 41 42 42 44 47 47 47 47 48 48 47 47 46 46 45 44 44 43 41 41 40 39 39 39 38 38 38 39 38 39 39 39
17 19 21 23 25 27 30 32 33 33 33 34 36 39 41 43 44 45 46 48 48 47 47 47 47 46 45 45 44 44 43 42 42 41 40 40 39 39 39 40 41 41 41 41
14 15 17 20 21 24 27 28 30 31 31 33 34 35 38 41 44 44 44 46 47 47 47 48 48 47 47 46 45 44 44 43 43 42 42 42 42 41 41 41 41 41 42 42
13 15 16 19 20 22 24 25 27 28 29 31 33 34 36 38 41 42 42 43 45 46 47 48 49 48 47 46 46 45 45 45 44 44 44 44 43 42 42 42 42 42 42 42
13 16 17 18 19 21 22 23 24 25 26 27 28 31 34 37 39 41 42 43 44 45 46 46 47 47 47 46 47 46 46 46 46 46 46 45 44 44 43 42 41 41 41 42
11 14 16 17 18 20 20 21 22 23 24 26 24 27 29 32 36 39 40 41 42 43 45 46 46 47 47 47 47 47 46 46 47 47 47 46 46 46 45 43 43 42 42 42
10 13 15 16 17 18 20 20 20 21 23 25 25 27 26 27 30 34 37 39 40 41 45 46 47 47 47 48 48 48 48 47 47 47 47 47 47 46 45 45 44 44 44 43
11 12 14 15 16 16 18 20 22 24 25 24 25 27 26 27 29 32 34 37 38 40 42 44 46 47 47 47 48 48 48 48 48 47 47 46 46 46 46 46 45 44 44 43
11 12 13 14 16 17 18 19 20 23 24 26 27 27 26 27 30 33 34 36 37 37 39 42 44 44 46 47 48 47 47 47 48 48 47 46 46 46 46 46 45 45 45 45
10 11 12 13 15 17 19 20 21 22 23 23 24 26 27 26 29 32 34 35 36 36 38 40 42 43 44 45 46 46 47 47 46 47 48 47 46 46 46 45 44 45 45 45
10 12 13 14 16 17 18 19 22 23 24 24 26 25 26 27 28 30 32 33 34 35 36 38 40 42 43 43 45 46 46 47 46 46 46 47 47 46 46 45 45 46 46 45
11 12 13 15 16 17 18 19 21 23 23 24 25 25 26 28 28 29 30 31 33 35 37 38 40 41 42 42 44 45 45 46 46 46 46 45 45 45 44 44 45 45 45 44
12 13 14 15 15 17 18 19 20 21 22 23 24 24 24 26 28 29 29 29 31 33 36 37 38 40 40 41 42 42 43 44 45 44 44 44 45 44 44 44 45 45 45 44
15 15 15 16 17 17 18 18 19 21 21 22 23 24 23 24 27 29 28 29 30 32 34 35 37 38 39 40 41 42 43 44 44 44 44 44 44 43 43 44 44 44 44 44
16 17 17 18 18 18 19 19 20 20 21 22 22 24 24 26 27 28 28 29 30 32 34 35 36 37 38 39 39 40 42 43 44 45 45 44 45 45 45 45 44 45 44 43
16 17 18 18 19 19 20 20 21 21 22 23 23 23 25 26 28 28 29 30 31 32 34 35 36 36 37 37 38 39 40 41 43 43 44 44 45 45 45 45 44 43 43 43
16 17 18 19 20 21 21 21 22 22 22 23 24 24 26 27 28 28 29 30 30 29 31 34 35 36 37 38 39 39 40 41 42 43 44 44 44 44 44 45 44 43 43 43
17 17 18 19 21 21 21 22 24 24 24 24 25 26 27 27 27 27 28 28 29 29 30 31 33 35 37 38 39 39 40 42 42 43 43 43 44 44 44 44 44 43 43 44
18 19 20 20 22 22 22 23 25 26 26 26 26 26 27 27 27 28 28 29 29 30 30 31 32 33 35 37 37 39 41 42 43 42 42 42 43 44 44 43 43 43 43 43
19 20 21 22 23 23 22 23 25 27 27 27 27 27 27 29 29 28 28 29 30 31 30 31 32 33 34 35 36 37 38 39 40 40 40 41 42 43 43 42 43 43 43 42
21 22 23 23 24 22 22 24 25 27 27 28 28 28 28 29 29 29 29 29 30 30 30 31 31 32 33 33 34 34 35 37 38 38 39 39 40 41 41 41 41 42 42 42
22 23 24 24 24 23 22 24 25 26 27 27 27 28 29 29 29 28 28 29 30 30 30 30 31 31 32 32 32 32 34 35 35 36 37 37 38 38 39 40 40 41 41 42
23 24 25 25 25 25 24 25 26 27 27 27 26 26 27 28 28 28 28 29 30 30 31 31 31 31 31 33 33 33 34 34 34 34 35 35 36 37 38 39 39 39 40 40
25 26 26 26 25 26 27 26 27 28 28 28 28 28 28 28 28 29 29 29 29 30 30 31 31 31 31 32 32 32 33 33 33 33 34 34 35 36 37 38 39 39 39 40
26 27 27 27 27 27 28 29 29 29 29 29 29 28 28 28 28 28 29 29 30 30 30 30 30 31 30 30 31 31 31 31 32 32 33 34 34 34 35 36 37 38 38 39
26 27 27 26 27 27 27 28 29 28 27 27 27 27 28 28 28 28 29 30 30 31 31 31 30 30 30 30 30 31 31 32 32 32 33 33 34 34 35 35 36 36 36 37